Time,TemperatureF,DewpointF,PressureIn,WindDirection,WindDirectionDegrees,WindSpeedMPH,WindSpeedGustMPH,Humidity,HourlyPrecipIn,Conditions,Clouds,dailyrainin,SoftwareType,DateUTC
2014-02-03 00:00:00,48.7,47.6,30.03,WSW,250,0.0,0.0,96,0.00,,---,0.00,VWS V14.01,2014-02-03 05:00:00,
2014-02-03 00:01:00,49.2,48.1,30.04,WSW,248,7.0,7.0,96,0.00,,---,0.00,VWS V14.01,2014-02-03 05:01:00,
2014-02-03 00:02:00,49.2,48.1,30.04,WSW,250,5.0,7.0,96,0.00,,---,0.00,VWS V14.01,2014-02-03 05:02:00,
2014-02-03 00:05:00,48.6,47.5,30.03,WSW,250,0.0,0.0,96,0.00,,---,0.00,VWS V14.01,2014-02-03 05:05:00,
2014-02-03 00:07:00,49.2,48.1,30.04,WSW,250,3.0,6.0,96,0.00,,---,0.00,VWS V14.01,2014-02-03 05:07:00,
2014-02-03 00:10:00,48.9,47.8,30.03,WSW,250,0.0,1.0,96,0.00,,---,0.00,VWS V14.01,2014-02-03 05:10:00,
2014-02-03 00:11:00,49.0,47.9,30.04,WSW,250,5.0,5.0,96,0.00,,---,0.00,VWS V14.01,2014-02-03 05:11:00,
2014-02-03 00:15:00,49.2,48.1,30.02,WSW,250,0.0,0.0,96,0.00,,---,0.00,VWS V14.01,2014-02-03 05:15:00,
2014-02-03 00:17:00,49.0,47.9,30.04,WSW,250,5.0,6.0,96,0.00,,---,0.00,VWS V14.01,2014-02-03 05:17:00,
2014-02-03 00:20:00,49.4,48.3,30.02,WSW,250,0.0,0.0,96,0.00,,---,0.00,VWS V14.01,2014-02-03 05:20:00,
2014-02-03 00:22:00,49.0,47.9,30.03,WSW,250,4.0,5.0,96,0.00,,---,0.00,VWS V14.01,2014-02-03 05:22:00,
2014-02-03 00:25:00,49.5,48.4,30.02,WSW,250,0.0,0.0,96,0.00,,---,0.00,VWS V14.01,2014-02-03 05:25:00,
2014-02-03 00:27:00,48.9,47.8,30.03,WSW,250,3.0,4.0,96,0.00,,---,0.00,VWS V14.01,2014-02-03 05:27:00,
2014-02-03 00:30:00,49.3,48.2,30.02,WSW,250,0.0,0.0,96,0.00,,---,0.00,VWS V14.01,2014-02-03 05:30:00,
2014-02-03 00:32:00,48.8,47.4,30.03,WSW,250,4.0,4.0,95,0.00,,---,0.00,VWS V14.01,2014-02-03 05:32:00,
2014-02-03 00:35:00,49.3,48.2,30.02,WSW,250,0.0,0.0,96,0.00,,---,0.00,VWS V14.01,2014-02-03 05:35:00,
2014-02-03 00:37:00,48.7,47.6,30.03,WSW,250,4.0,5.0,96,0.00,,---,0.00,VWS V14.01,2014-02-03 05:37:00,
2014-02-03 00:40:00,49.2,48.1,30.02,WSW,250,0.0,0.0,96,0.00,,---,0.00,VWS V14.01,2014-02-03 05:40:00,
2014-02-03 00:42:00,48.7,47.6,30.03,WSW,250,4.0,4.0,96,0.00,,---,0.00,VWS V14.01,2014-02-03 05:42:00,
2014-02-03 00:45:00,49.3,48.2,30.02,WSW,250,0.0,0.0,96,0.00,,---,0.00,VWS V14.01,2014-02-03 05:45:00,
2014-02-03 00:47:00,48.8,47.7,30.03,WSW,250,0.0,1.0,96,0.00,,---,0.00,VWS V14.01,2014-02-03 05:47:00,
2014-02-03 00:50:00,49.5,48.4,30.01,WSW,250,0.0,0.0,96,0.00,,---,0.00,VWS V14.01,2014-02-03 05:50:00,
2014-02-03 00:51:00,48.8,47.7,30.03,WSW,250,0.0,1.0,96,0.00,,---,0.00,VWS V14.01,2014-02-03 05:51:00,
2014-02-03 00:55:00,49.5,48.4,30.01,WSW,250,0.0,0.0,96,0.00,,---,0.00,VWS V14.01,2014-02-03 05:55:00,
2014-02-03 00:56:00,48.8,47.7,30.03,WSW,250,0.0,0.0,96,0.00,,---,0.00,VWS V14.01,2014-02-03 05:56:00,
2014-02-03 01:00:00,49.3,48.2,30.01,WSW,250,0.0,0.0,96,0.00,,---,0.00,VWS V14.01,2014-02-03 06:00:00,
2014-02-03 01:01:00,48.7,47.6,30.03,WSW,250,0.0,0.0,96,0.00,,---,0.00,VWS V14.01,2014-02-03 06:01:00,
2014-02-03 01:05:00,49.2,48.1,30.02,WSW,250,0.0,0.0,96,0.00,,---,0.00,VWS V14.01,2014-02-03 06:05:00,
2014-02-03 01:06:00,48.7,47.6,30.03,WSW,250,0.0,0.0,96,0.00,,---,0.00,VWS V14.01,2014-02-03 06:06:00,
2014-02-03 01:10:00,48.8,47.4,30.02,WSW,250,0.0,0.0,95,0.00,,---,0.00,VWS V14.01,2014-02-03 06:10:00,
2014-02-03 01:11:00,49.0,47.9,30.03,WSW,250,0.0,0.0,96,0.00,,---,0.00,VWS V14.01,2014-02-03 06:11:00,
2014-02-03 01:15:00,48.7,47.6,30.03,WSW,250,0.0,1.0,96,0.00,,---,0.00,VWS V14.01,2014-02-03 06:15:00,
2014-02-03 01:16:00,49.3,48.2,30.02,WSW,250,0.0,0.0,96,0.00,,---,0.00,VWS V14.01,2014-02-03 06:16:00,
2014-02-03 01:20:00,49.2,48.1,30.03,West,262,0.0,0.0,96,0.00,,---,0.00,VWS V14.01,2014-02-03 06:20:00,
2014-02-03 01:21:00,49.4,48.3,30.02,WSW,250,0.0,0.0,96,0.00,,---,0.00,VWS V14.01,2014-02-03 06:21:00,
2014-02-03 01:25:00,49.4,48.3,30.02,West,263,0.0,0.0,96,0.00,,---,0.00,VWS V14.01,2014-02-03 06:25:00,
2014-02-03 01:26:00,49.4,48.3,30.02,WSW,250,0.0,0.0,96,0.00,,---,0.00,VWS V14.01,2014-02-03 06:26:00,
2014-02-03 01:30:00,49.1,48.0,30.02,West,263,0.0,3.0,96,0.00,,---,0.00,VWS V14.01,2014-02-03 06:30:00,
2014-02-03 01:31:00,49.3,48.2,30.02,WSW,250,0.0,0.0,96,0.00,,---,0.00,VWS V14.01,2014-02-03 06:31:00,
2014-02-03 01:35:00,48.8,47.7,30.02,West,263,0.0,0.0,96,0.00,,---,0.00,VWS V14.01,2014-02-03 06:35:00,
2014-02-03 01:36:00,49.2,48.1,30.01,WSW,250,0.0,0.0,96,0.00,,---,0.00,VWS V14.01,2014-02-03 06:36:00,
2014-02-03 01:40:00,48.8,47.7,30.02,West,263,0.0,0.0,96,0.00,,---,0.00,VWS V14.01,2014-02-03 06:40:00,
2014-02-03 01:41:00,49.2,48.1,30.01,WSW,250,0.0,0.0,96,0.00,,---,0.00,VWS V14.01,2014-02-03 06:41:00,
2014-02-03 01:45:00,48.8,47.7,30.02,West,263,0.0,0.0,96,0.00,,---,0.00,VWS V14.01,2014-02-03 06:45:00,
2014-02-03 01:46:00,49.4,48.3,30.01,WSW,250,0.0,0.0,96,0.00,,---,0.00,VWS V14.01,2014-02-03 06:46:00,
2014-02-03 01:50:00,48.6,47.5,30.01,West,263,0.0,0.0,96,0.00,,---,0.00,VWS V14.01,2014-02-03 06:50:00,
2014-02-03 01:51:00,49.5,48.4,30.01,WSW,250,0.0,0.0,96,0.00,,---,0.00,VWS V14.01,2014-02-03 06:51:00,
2014-02-03 01:55:00,48.4,47.3,30.01,West,263,0.0,0.0,96,0.00,,---,0.00,VWS V14.01,2014-02-03 06:55:00,
2014-02-03 01:56:00,49.4,48.3,30.01,WSW,250,0.0,0.0,96,0.00,,---,0.00,VWS V14.01,2014-02-03 06:56:00,
2014-02-03 02:00:00,48.2,47.1,30.01,West,263,0.0,0.0,96,0.00,,---,0.00,VWS V14.01,2014-02-03 07:00:00,
2014-02-03 02:01:00,49.3,48.2,30.02,WSW,250,0.0,0.0,96,0.00,,---,0.00,VWS V14.01,2014-02-03 07:01:00,
2014-02-03 02:05:00,48.1,47.0,30.01,West,263,0.0,0.0,96,0.00,,---,0.00,VWS V14.01,2014-02-03 07:05:00,
2014-02-03 02:06:00,49.1,48.0,30.02,WSW,250,0.0,0.0,96,0.00,,---,0.00,VWS V14.01,2014-02-03 07:06:00,
2014-02-03 02:10:00,48.2,47.1,30.01,West,263,0.0,0.0,96,0.00,,---,0.00,VWS V14.01,2014-02-03 07:10:00,
2014-02-03 02:11:00,48.8,47.7,30.02,WSW,250,0.0,1.0,96,0.00,,---,0.00,VWS V14.01,2014-02-03 07:11:00,
2014-02-03 02:15:00,48.6,47.5,30.01,West,263,0.0,0.0,96,0.00,,---,0.00,VWS V14.01,2014-02-03 07:15:00,
2014-02-03 02:16:00,48.8,47.7,30.03,WSW,252,0.0,0.0,96,0.00,,---,0.00,VWS V14.01,2014-02-03 07:16:00,
2014-02-03 02:20:00,48.9,47.8,30.01,West,263,0.0,0.0,96,0.00,,---,0.00,VWS V14.01,2014-02-03 07:20:00,
2014-02-03 02:21:00,49.3,48.2,30.03,West,263,0.0,0.0,96,0.00,,---,0.00,VWS V14.01,2014-02-03 07:21:00,
2014-02-03 02:25:00,49.1,48.0,30.01,West,263,0.0,0.0,96,0.00,,---,0.00,VWS V14.01,2014-02-03 07:25:00,
2014-02-03 02:26:00,49.3,48.2,30.02,West,263,0.0,3.0,96,0.00,,---,0.00,VWS V14.01,2014-02-03 07:26:00,
2014-02-03 02:30:00,49.5,48.7,30.01,West,263,0.0,0.0,97,0.00,,---,0.00,VWS V14.01,2014-02-03 07:30:00,
2014-02-03 02:31:00,49.0,47.9,30.02,West,263,0.0,0.0,96,0.00,,---,0.00,VWS V14.01,2014-02-03 07:31:00,
2014-02-03 02:35:00,50.0,49.2,30.01,West,263,0.0,0.0,97,0.00,,---,0.00,VWS V14.01,2014-02-03 07:35:00,
2014-02-03 02:36:00,48.7,47.6,30.02,West,263,0.0,0.0,96,0.00,,---,0.00,VWS V14.01,2014-02-03 07:36:00,
2014-02-03 02:40:00,50.2,49.4,30.01,West,263,0.0,0.0,97,0.00,,---,0.00,VWS V14.01,2014-02-03 07:40:00,
2014-02-03 02:41:00,48.8,47.7,30.02,West,263,0.0,0.0,96,0.00,,---,0.00,VWS V14.01,2014-02-03 07:41:00,
2014-02-03 02:45:00,50.2,49.1,30.00,West,263,0.0,0.0,96,0.00,,---,0.00,VWS V14.01,2014-02-03 07:45:00,
2014-02-03 02:46:00,48.7,47.6,30.01,West,263,0.0,0.0,96,0.00,,---,0.00,VWS V14.01,2014-02-03 07:46:00,
2014-02-03 02:50:00,50.2,49.1,30.00,West,263,0.0,0.0,96,0.00,,---,0.00,VWS V14.01,2014-02-03 07:50:00,
2014-02-03 02:51:00,48.5,47.4,30.01,West,263,0.0,0.0,96,0.00,,---,0.00,VWS V14.01,2014-02-03 07:51:00,
2014-02-03 02:55:00,50.2,49.1,30.00,West,263,0.0,0.0,96,0.00,,---,0.00,VWS V14.01,2014-02-03 07:55:00,
2014-02-03 02:56:00,48.3,47.2,30.01,West,263,0.0,0.0,96,0.00,,---,0.00,VWS V14.01,2014-02-03 07:56:00,
2014-02-03 03:00:00,50.0,48.9,30.00,West,263,0.0,0.0,96,0.00,,---,0.00,VWS V14.01,2014-02-03 08:00:00,
2014-02-03 03:01:00,48.1,47.0,30.01,West,263,0.0,0.0,96,0.00,,---,0.00,VWS V14.01,2014-02-03 08:01:00,
2014-02-03 03:05:00,50.1,49.3,30.00,West,263,0.0,0.0,97,0.00,,---,0.00,VWS V14.01,2014-02-03 08:05:00,
2014-02-03 03:06:00,48.1,47.0,30.01,West,263,0.0,0.0,96,0.00,,---,0.00,VWS V14.01,2014-02-03 08:06:00,
2014-02-03 03:10:00,50.1,49.0,30.00,West,263,0.0,0.0,96,0.00,,---,0.00,VWS V14.01,2014-02-03 08:10:00,
2014-02-03 03:11:00,48.3,47.2,30.01,West,263,0.0,0.0,96,0.00,,---,0.00,VWS V14.01,2014-02-03 08:11:00,
2014-02-03 03:15:00,49.9,48.8,30.00,West,263,0.0,0.0,96,0.00,,---,0.00,VWS V14.01,2014-02-03 08:15:00,
2014-02-03 03:16:00,48.7,47.6,30.01,West,263,0.0,0.0,96,0.00,,---,0.00,VWS V14.01,2014-02-03 08:16:00,
2014-02-03 03:20:00,49.6,48.5,29.99,West,263,0.0,0.0,96,0.00,,---,0.00,VWS V14.01,2014-02-03 08:20:00,
2014-02-03 03:21:00,49.0,48.2,30.01,West,263,0.0,0.0,97,0.00,,---,0.00,VWS V14.01,2014-02-03 08:21:00,
2014-02-03 03:25:00,49.5,48.4,29.99,West,263,0.0,0.0,96,0.00,,---,0.00,VWS V14.01,2014-02-03 08:25:00,
2014-02-03 03:26:00,49.2,48.1,30.01,West,263,0.0,0.0,96,0.00,,---,0.00,VWS V14.01,2014-02-03 08:26:00,
2014-02-03 03:30:00,49.4,48.3,29.99,West,263,0.0,0.0,96,0.00,,---,0.00,VWS V14.01,2014-02-03 08:30:00,
2014-02-03 03:31:00,49.7,48.9,30.01,West,263,0.0,0.0,97,0.00,,---,0.00,VWS V14.01,2014-02-03 08:31:00,
2014-02-03 03:35:00,49.0,47.9,29.99,West,263,0.0,0.0,96,0.00,,---,0.00,VWS V14.01,2014-02-03 08:35:00,
2014-02-03 03:36:00,50.1,49.3,30.01,West,263,0.0,0.0,97,0.00,,---,0.00,VWS V14.01,2014-02-03 08:36:00,
2014-02-03 03:40:00,49.0,47.9,29.99,West,263,0.0,0.0,96,0.00,,---,0.00,VWS V14.01,2014-02-03 08:40:00,
2014-02-03 03:41:00,50.2,49.4,30.01,West,263,0.0,0.0,97,0.00,,---,0.00,VWS V14.01,2014-02-03 08:41:00,
2014-02-03 03:45:00,48.9,47.8,29.99,West,263,0.0,0.0,96,0.00,,---,0.00,VWS V14.01,2014-02-03 08:45:00,
2014-02-03 03:46:00,50.2,49.1,30.00,West,263,0.0,0.0,96,0.00,,---,0.00,VWS V14.01,2014-02-03 08:46:00,
2014-02-03 03:50:00,49.0,48.2,29.99,West,263,0.0,0.0,97,0.00,,---,0.00,VWS V14.01,2014-02-03 08:50:00,
2014-02-03 03:51:00,50.3,49.2,30.00,West,263,0.0,0.0,96,0.00,,---,0.00,VWS V14.01,2014-02-03 08:51:00,
2014-02-03 03:55:00,49.2,48.4,29.99,WSW,256,0.0,0.0,97,0.00,,---,0.00,VWS V14.01,2014-02-03 08:55:00,
2014-02-03 03:56:00,50.1,49.0,30.00,West,263,0.0,0.0,96,0.00,,---,0.00,VWS V14.01,2014-02-03 08:56:00,
2014-02-03 04:00:00,49.5,48.7,29.99,WSW,250,0.0,0.0,97,0.00,,---,0.00,VWS V14.01,2014-02-03 09:00:00,
2014-02-03 04:01:00,50.1,49.0,30.00,West,263,0.0,0.0,96,0.00,,---,0.00,VWS V14.01,2014-02-03 09:01:00,
2014-02-03 04:05:00,49.4,48.3,29.99,WSW,241,0.0,0.0,96,0.00,,---,0.00,VWS V14.01,2014-02-03 09:05:00,
2014-02-03 04:06:00,50.2,49.4,30.00,West,263,0.0,0.0,97,0.00,,---,0.00,VWS V14.01,2014-02-03 09:06:00,
2014-02-03 04:10:00,48.8,47.7,29.99,WSW,241,0.0,0.0,96,0.00,,---,0.00,VWS V14.01,2014-02-03 09:10:00,
2014-02-03 04:11:00,50.1,49.0,30.00,West,263,0.0,0.0,96,0.00,,---,0.00,VWS V14.01,2014-02-03 09:11:00,
2014-02-03 04:15:00,49.2,48.4,29.99,WSW,241,0.0,0.0,97,0.00,,---,0.00,VWS V14.01,2014-02-03 09:15:00,
2014-02-03 04:16:00,49.9,48.8,29.99,West,263,0.0,0.0,96,0.00,,---,0.00,VWS V14.01,2014-02-03 09:16:00,
2014-02-03 04:20:00,49.6,48.8,29.99,WSW,241,0.0,0.0,97,0.00,,---,0.00,VWS V14.01,2014-02-03 09:20:00,
2014-02-03 04:21:00,49.6,48.5,30.00,West,263,0.0,0.0,96,0.00,,---,0.00,VWS V14.01,2014-02-03 09:21:00,
2014-02-03 04:25:00,50.3,49.5,29.99,WSW,241,0.0,0.0,97,0.00,,---,0.00,VWS V14.01,2014-02-03 09:25:00,
2014-02-03 04:26:00,49.5,48.4,29.99,West,263,0.0,0.0,96,0.00,,---,0.00,VWS V14.01,2014-02-03 09:26:00,
2014-02-03 04:30:00,50.8,50.0,29.99,WSW,241,0.0,0.0,97,0.00,,---,0.00,VWS V14.01,2014-02-03 09:30:00,
2014-02-03 04:31:00,49.3,48.2,29.99,West,263,0.0,0.0,96,0.00,,---,0.00,VWS V14.01,2014-02-03 09:31:00,
2014-02-03 04:35:00,51.2,50.4,29.99,WSW,241,0.0,0.0,97,0.00,,---,0.00,VWS V14.01,2014-02-03 09:35:00,
2014-02-03 04:36:00,49.0,47.9,29.99,West,263,0.0,0.0,96,0.00,,---,0.00,VWS V14.01,2014-02-03 09:36:00,
2014-02-03 04:40:00,51.5,50.7,29.99,WSW,241,0.0,0.0,97,0.00,,---,0.00,VWS V14.01,2014-02-03 09:40:00,
2014-02-03 04:41:00,49.0,47.9,29.99,West,263,0.0,0.0,96,0.00,,---,0.00,VWS V14.01,2014-02-03 09:41:00,
2014-02-03 04:45:00,51.8,51.0,29.99,WSW,241,0.0,0.0,97,0.00,,---,0.00,VWS V14.01,2014-02-03 09:45:00,
2014-02-03 04:46:00,48.9,47.8,29.99,West,263,0.0,0.0,96,0.00,,---,0.00,VWS V14.01,2014-02-03 09:46:00,
2014-02-03 04:50:00,52.2,51.4,29.98,WSW,241,0.0,0.0,97,0.00,,---,0.00,VWS V14.01,2014-02-03 09:50:00,
2014-02-03 04:51:00,49.1,48.3,29.99,West,263,0.0,0.0,97,0.00,,---,0.00,VWS V14.01,2014-02-03 09:51:00,
2014-02-03 04:55:00,52.6,51.8,29.98,WSW,241,0.0,0.0,97,0.00,,---,0.00,VWS V14.01,2014-02-03 09:55:00,
2014-02-03 04:56:00,49.4,48.6,29.99,WSW,253,0.0,0.0,97,0.00,,---,0.00,VWS V14.01,2014-02-03 09:56:00,
2014-02-03 05:00:00,52.8,52.0,29.98,WSW,241,0.0,0.0,97,0.00,,---,0.00,VWS V14.01,2014-02-03 10:00:00,
2014-02-03 05:01:00,49.5,48.7,29.99,WSW,250,0.0,0.0,97,0.00,,---,0.00,VWS V14.01,2014-02-03 10:01:00,
2014-02-03 05:05:00,52.7,51.9,29.98,SW,235,0.0,0.0,97,0.00,,---,0.00,VWS V14.01,2014-02-03 10:05:00,
2014-02-03 05:06:00,49.2,48.1,29.99,WSW,241,0.0,0.0,96,0.00,,---,0.00,VWS V14.01,2014-02-03 10:06:00,
2014-02-03 05:10:00,52.2,51.4,29.98,SW,232,0.0,0.0,97,0.00,,---,0.00,VWS V14.01,2014-02-03 10:10:00,
2014-02-03 05:11:00,48.8,47.7,29.99,WSW,241,0.0,0.0,96,0.00,,---,0.00,VWS V14.01,2014-02-03 10:11:00,
2014-02-03 05:15:00,51.5,50.4,29.98,SW,229,0.0,0.0,96,0.00,,---,0.00,VWS V14.01,2014-02-03 10:15:00,
2014-02-03 05:16:00,49.3,48.5,29.99,WSW,241,0.0,0.0,97,0.00,,---,0.00,VWS V14.01,2014-02-03 10:16:00,
2014-02-03 05:20:00,50.9,49.8,29.98,SSW,194,0.0,0.0,96,0.00,,---,0.00,VWS V14.01,2014-02-03 10:20:00,
2014-02-03 05:21:00,49.9,49.1,29.99,WSW,241,0.0,0.0,97,0.00,,---,0.00,VWS V14.01,2014-02-03 10:21:00,
2014-02-03 05:25:00,50.7,49.9,29.98,SSW,192,0.0,0.0,97,0.00,,---,0.00,VWS V14.01,2014-02-03 10:25:00,
2014-02-03 05:26:00,50.5,49.7,29.99,WSW,241,0.0,0.0,97,0.00,,---,0.00,VWS V14.01,2014-02-03 10:26:00,
2014-02-03 05:30:00,50.5,49.4,29.98,SSE,148,0.0,0.0,96,0.00,,---,0.00,VWS V14.01,2014-02-03 10:30:00,
2014-02-03 05:31:00,50.9,50.1,29.99,WSW,241,0.0,0.0,97,0.00,,---,0.00,VWS V14.01,2014-02-03 10:31:00,
2014-02-03 05:35:00,50.0,48.9,29.98,SE,130,0.0,0.0,96,0.00,,---,0.00,VWS V14.01,2014-02-03 10:35:00,
2014-02-03 05:36:00,51.3,50.5,29.99,WSW,241,0.0,0.0,97,0.00,,---,0.00,VWS V14.01,2014-02-03 10:36:00,
2014-02-03 05:40:00,49.9,49.1,29.98,ESE,114,4.0,4.0,97,0.00,,---,0.00,VWS V14.01,2014-02-03 10:40:00,
2014-02-03 05:41:00,51.5,50.7,29.99,WSW,241,0.0,0.0,97,0.00,,---,0.00,VWS V14.01,2014-02-03 10:41:00,
2014-02-03 05:45:00,50.2,49.4,29.98,ESE,113,5.0,7.0,97,0.00,,---,0.00,VWS V14.01,2014-02-03 10:45:00,
2014-02-03 05:46:00,51.9,51.1,29.99,WSW,241,0.0,0.0,97,0.00,,---,0.00,VWS V14.01,2014-02-03 10:46:00,
2014-02-03 05:50:00,49.9,48.8,29.98,ESE,113,3.0,5.0,96,0.00,,---,0.00,VWS V14.01,2014-02-03 10:50:00,
2014-02-03 05:51:00,52.3,51.5,29.98,WSW,241,0.0,0.0,97,0.00,,---,0.00,VWS V14.01,2014-02-03 10:51:00,
2014-02-03 05:55:00,50.5,49.7,29.97,ESE,115,4.0,7.0,97,0.00,,---,0.00,VWS V14.01,2014-02-03 10:55:00,
2014-02-03 05:56:00,52.7,51.9,29.98,WSW,241,0.0,0.0,97,0.00,,---,0.00,VWS V14.01,2014-02-03 10:56:00,
2014-02-03 06:00:00,51.5,50.7,29.97,ESE,116,4.0,7.0,97,0.00,,---,0.00,VWS V14.01,2014-02-03 11:00:00,
2014-02-03 06:01:00,52.8,52.0,29.98,WSW,241,0.0,0.0,97,0.00,,---,0.00,VWS V14.01,2014-02-03 11:01:00,
2014-02-03 06:05:00,52.3,51.8,29.97,ESE,122,4.0,5.0,98,0.00,,---,0.00,VWS V14.01,2014-02-03 11:05:00,
2014-02-03 06:06:00,52.5,51.7,29.98,SW,235,0.0,0.0,97,0.00,,---,0.00,VWS V14.01,2014-02-03 11:06:00,
2014-02-03 06:10:00,52.7,52.2,29.98,ESE,121,3.0,4.0,98,0.00,,---,0.00,VWS V14.01,2014-02-03 11:10:00,
2014-02-03 06:11:00,52.1,51.0,29.98,SW,231,0.0,0.0,96,0.00,,---,0.00,VWS V14.01,2014-02-03 11:11:00,
2014-02-03 06:15:00,52.6,51.8,29.98,ESE,123,4.0,4.0,97,0.00,,---,0.00,VWS V14.01,2014-02-03 11:15:00,
2014-02-03 06:16:00,51.3,50.2,29.98,SW,229,0.0,0.0,96,0.00,,---,0.00,VWS V14.01,2014-02-03 11:16:00,
2014-02-03 06:20:00,52.8,52.0,29.98,ESE,123,2.0,4.0,97,0.00,,---,0.00,VWS V14.01,2014-02-03 11:20:00,
2014-02-03 06:21:00,50.8,49.7,29.98,SSW,194,0.0,0.0,96,0.00,,---,0.00,VWS V14.01,2014-02-03 11:21:00,
2014-02-03 06:25:00,53.1,52.3,29.98,SE,124,2.0,4.0,97,0.00,,---,0.00,VWS V14.01,2014-02-03 11:25:00,
2014-02-03 06:26:00,50.7,49.9,29.98,South,190,0.0,0.0,97,0.00,,---,0.00,VWS V14.01,2014-02-03 11:26:00,
2014-02-03 06:30:00,53.2,52.4,29.98,SE,126,1.0,3.0,97,0.00,,---,0.00,VWS V14.01,2014-02-03 11:30:00,
2014-02-03 06:31:00,50.4,49.3,29.98,SSE,148,0.0,0.0,96,0.00,,---,0.00,VWS V14.01,2014-02-03 11:31:00,
2014-02-03 06:35:00,53.5,52.7,29.98,SE,134,0.0,3.0,97,0.00,,---,0.00,VWS V14.01,2014-02-03 11:35:00,
2014-02-03 06:36:00,49.9,48.8,29.98,ESE,122,0.0,0.0,96,0.00,,---,0.00,VWS V14.01,2014-02-03 11:36:00,
2014-02-03 06:40:00,53.9,53.1,29.98,South,188,2.0,3.0,97,0.00,,---,0.00,VWS V14.01,2014-02-03 11:40:00,
2014-02-03 06:41:00,50.0,49.2,29.98,ESE,114,5.0,5.0,97,0.00,,---,0.00,VWS V14.01,2014-02-03 11:41:00,
2014-02-03 06:45:00,54.7,54.2,29.98,WSW,243,6.0,11.0,98,0.00,,---,0.00,VWS V14.01,2014-02-03 11:45:00,
2014-02-03 06:46:00,50.3,49.5,29.98,ESE,113,4.0,5.0,97,0.00,,---,0.00,VWS V14.01,2014-02-03 11:46:00,
2014-02-03 06:50:00,55.3,54.8,29.99,SW,229,6.0,12.0,98,0.00,,---,0.00,VWS V14.01,2014-02-03 11:50:00,
2014-02-03 06:51:00,49.9,49.1,29.98,ESE,112,4.0,5.0,97,0.00,,---,0.00,VWS V14.01,2014-02-03 11:51:00,
2014-02-03 06:55:00,55.5,54.7,29.99,WSW,258,7.0,11.0,97,0.00,,---,0.00,VWS V14.01,2014-02-03 11:55:00,
2014-02-03 06:56:00,50.7,49.9,29.97,ESE,114,5.0,5.0,97,0.00,,---,0.00,VWS V14.01,2014-02-03 11:56:00,
2014-02-03 07:00:00,55.4,54.6,29.99,WSW,253,8.0,11.0,97,0.00,,---,0.00,VWS V14.01,2014-02-03 12:00:00,
2014-02-03 07:01:00,51.7,51.2,29.97,ESE,118,5.0,5.0,98,0.00,,---,0.00,VWS V14.01,2014-02-03 12:01:00,
2014-02-03 07:05:00,56.0,55.2,29.99,WSW,254,8.0,9.0,97,0.00,,---,0.00,VWS V14.01,2014-02-03 12:05:00,
2014-02-03 07:06:00,52.4,51.8,29.97,ESE,121,4.0,4.0,98,0.00,,---,0.00,VWS V14.01,2014-02-03 12:06:00,
2014-02-03 07:10:00,56.2,55.4,29.99,WSW,246,5.0,9.0,97,0.00,,---,0.00,VWS V14.01,2014-02-03 12:10:00,
2014-02-03 07:11:00,52.7,51.9,29.98,ESE,122,3.0,4.0,97,0.00,,---,0.00,VWS V14.01,2014-02-03 12:11:00,
2014-02-03 07:15:00,55.8,55.0,29.99,West,264,8.0,8.0,97,0.00,,---,0.00,VWS V14.01,2014-02-03 12:15:00,
2014-02-03 07:16:00,52.7,51.9,29.98,ESE,123,3.0,4.0,97,0.00,,---,0.00,VWS V14.01,2014-02-03 12:16:00,
2014-02-03 07:20:00,55.5,54.7,29.99,West,265,8.0,9.0,97,0.00,,---,0.00,VWS V14.01,2014-02-03 12:20:00,
2014-02-03 07:21:00,52.8,52.0,29.98,ESE,123,2.0,3.0,97,0.00,,---,0.00,VWS V14.01,2014-02-03 12:21:00,
2014-02-03 07:25:00,55.5,54.7,29.99,WSW,252,9.0,11.0,97,0.00,,---,0.00,VWS V14.01,2014-02-03 12:25:00,
2014-02-03 07:26:00,53.1,52.3,29.98,SE,124,2.0,3.0,97,0.00,,---,0.00,VWS V14.01,2014-02-03 12:26:00,
2014-02-03 07:30:00,55.3,54.5,30.00,West,259,9.0,11.0,97,0.00,,---,0.00,VWS V14.01,2014-02-03 12:30:00,
2014-02-03 07:31:00,53.2,52.4,29.98,SE,126,0.0,1.0,97,0.00,,---,0.00,VWS V14.01,2014-02-03 12:31:00,
2014-02-03 07:35:00,55.0,54.2,30.00,West,260,10.0,10.0,97,0.00,,---,0.00,VWS V14.01,2014-02-03 12:35:00,
2014-02-03 07:36:00,53.6,52.8,29.98,SSE,151,0.0,3.0,97,0.00,,---,0.00,VWS V14.01,2014-02-03 12:36:00,
2014-02-03 07:40:00,54.4,53.6,30.00,WSW,255,8.0,10.0,97,0.00,,---,0.00,VWS V14.01,2014-02-03 12:40:00,
2014-02-03 07:41:00,54.0,53.2,29.99,SSW,192,1.0,4.0,97,0.00,,---,0.00,VWS V14.01,2014-02-03 12:41:00,
2014-02-03 07:45:00,53.5,52.4,30.00,West,268,8.0,9.0,96,0.00,,---,0.00,VWS V14.01,2014-02-03 12:45:00,
2014-02-03 07:46:00,55.0,54.5,29.99,SW,228,9.0,11.0,98,0.00,,---,0.00,VWS V14.01,2014-02-03 12:46:00,
2014-02-03 07:50:00,53.3,52.5,30.00,West,263,9.0,10.0,97,0.00,,---,0.00,VWS V14.01,2014-02-03 12:50:00,
2014-02-03 07:51:00,55.4,54.8,29.99,West,259,10.0,11.0,98,0.00,,---,0.00,VWS V14.01,2014-02-03 12:51:00,
2014-02-03 07:55:00,53.2,52.4,30.00,WSW,256,9.0,10.0,97,0.00,,---,0.00,VWS V14.01,2014-02-03 12:55:00,
2014-02-03 07:56:00,55.3,54.5,29.99,West,266,8.0,9.0,97,0.00,,---,0.00,VWS V14.01,2014-02-03 12:56:00,
2014-02-03 08:00:00,52.6,51.5,30.00,West,259,8.0,9.0,96,0.00,,---,0.00,VWS V14.01,2014-02-03 13:00:00,
2014-02-03 08:01:00,55.7,54.9,29.99,WSW,258,9.0,9.0,97,0.00,,---,0.00,VWS V14.01,2014-02-03 13:01:00,
2014-02-03 08:05:00,52.2,51.1,30.00,WSW,250,6.0,8.0,96,0.00,,---,0.00,VWS V14.01,2014-02-03 13:05:00,
2014-02-03 08:06:00,56.2,55.4,29.99,WSW,251,8.0,9.0,97,0.00,,---,0.00,VWS V14.01,2014-02-03 13:06:00,
2014-02-03 08:10:00,52.3,51.5,30.00,WSW,249,7.0,7.0,97,0.00,,---,0.00,VWS V14.01,2014-02-03 13:10:00,
2014-02-03 08:11:00,56.0,55.2,29.99,WSW,245,6.0,6.0,97,0.00,,---,0.00,VWS V14.01,2014-02-03 13:11:00,
2014-02-03 08:15:00,52.6,51.8,30.01,WSW,253,8.0,8.0,97,0.00,,---,0.00,VWS V14.01,2014-02-03 13:15:00,
2014-02-03 08:16:00,55.7,54.9,29.99,WSW,257,8.0,8.0,97,0.00,,---,0.00,VWS V14.01,2014-02-03 13:16:00,
2014-02-03 08:20:00,52.4,51.6,30.01,WSW,253,8.0,9.0,97,0.00,,---,0.00,VWS V14.01,2014-02-03 13:20:00,
2014-02-03 08:21:00,55.5,54.7,29.99,WSW,252,9.0,9.0,97,0.00,,---,0.00,VWS V14.01,2014-02-03 13:21:00,
2014-02-03 08:25:00,52.3,51.5,30.01,WSW,246,8.0,9.0,97,0.00,,---,0.00,VWS V14.01,2014-02-03 13:25:00,
2014-02-03 08:26:00,55.5,54.7,30.00,West,259,9.0,11.0,97,0.00,,---,0.00,VWS V14.01,2014-02-03 13:26:00,
2014-02-03 08:30:00,52.8,52.0,30.00,WSW,239,8.0,9.0,97,0.00,,---,0.00,VWS V14.01,2014-02-03 13:30:00,
2014-02-03 08:31:00,55.2,54.4,30.00,West,259,10.0,10.0,97,0.00,,---,0.00,VWS V14.01,2014-02-03 13:31:00,
2014-02-03 08:35:00,53.3,52.5,30.00,SW,227,12.0,13.0,97,0.00,,---,0.00,VWS V14.01,2014-02-03 13:35:00,
2014-02-03 08:36:00,54.9,54.1,30.00,WSW,254,10.0,10.0,97,0.00,,---,0.00,VWS V14.01,2014-02-03 13:36:00,
2014-02-03 08:40:00,54.2,53.7,30.00,WSW,244,13.0,13.0,98,0.00,,---,0.00,VWS V14.01,2014-02-03 13:40:00,
2014-02-03 08:41:00,54.2,53.4,30.00,West,265,8.0,9.0,97,0.00,,---,0.00,VWS V14.01,2014-02-03 13:41:00,
2014-02-03 08:45:00,55.0,54.5,30.00,WSW,242,13.0,15.0,98,0.00,,---,0.00,VWS V14.01,2014-02-03 13:45:00,
2014-02-03 08:46:00,53.4,52.3,30.00,West,267,9.0,10.0,96,0.00,,---,0.00,VWS V14.01,2014-02-03 13:46:00,
2014-02-03 08:50:00,55.0,54.2,30.00,WSW,244,11.0,14.0,97,0.00,,---,0.00,VWS V14.01,2014-02-03 13:50:00,
2014-02-03 08:51:00,53.2,52.4,30.00,West,259,9.0,10.0,97,0.00,,---,0.00,VWS V14.01,2014-02-03 13:51:00,
2014-02-03 08:55:00,55.1,54.3,30.00,WSW,245,12.0,15.0,97,0.00,,---,0.00,VWS V14.01,2014-02-03 13:55:00,
2014-02-03 08:56:00,53.1,52.3,30.00,West,262,8.0,9.0,97,0.00,,---,0.00,VWS V14.01,2014-02-03 13:56:00,
2014-02-03 09:00:00,54.9,54.1,30.00,WSW,242,11.0,15.0,97,0.00,,---,0.00,VWS V14.01,2014-02-03 14:00:00,
2014-02-03 09:01:00,52.5,51.7,30.00,WSW,254,7.0,8.0,97,0.00,,---,0.00,VWS V14.01,2014-02-03 14:01:00,
2014-02-03 09:05:00,54.5,53.7,30.00,WSW,239,12.0,13.0,97,0.00,,---,0.00,VWS V14.01,2014-02-03 14:05:00,
2014-02-03 09:06:00,52.2,51.1,30.00,WSW,247,4.0,7.0,96,0.00,,---,0.00,VWS V14.01,2014-02-03 14:06:00,
2014-02-03 09:10:00,54.2,53.4,30.00,WSW,242,13.0,14.0,97,0.00,,---,0.00,VWS V14.01,2014-02-03 14:10:00,
2014-02-03 09:11:00,52.4,51.6,30.00,WSW,249,8.0,8.0,97,0.00,,---,0.00,VWS V14.01,2014-02-03 14:11:00,
2014-02-03 09:15:00,54.1,53.3,29.99,SW,231,14.0,15.0,97,0.00,,---,0.00,VWS V14.01,2014-02-03 14:15:00,
2014-02-03 09:16:00,52.6,51.8,30.01,WSW,253,8.0,8.0,97,0.00,,---,0.00,VWS V14.01,2014-02-03 14:16:00,
2014-02-03 09:20:00,54.1,53.5,29.99,SW,231,13.0,18.0,98,0.00,,---,0.00,VWS V14.01,2014-02-03 14:20:00,
2014-02-03 09:21:00,52.3,51.5,30.01,WSW,250,8.0,9.0,97,0.00,,---,0.00,VWS V14.01,2014-02-03 14:21:00,
2014-02-03 09:25:00,54.2,53.7,29.99,SW,232,15.0,16.0,98,0.00,,---,0.00,VWS V14.01,2014-02-03 14:25:00,
2014-02-03 09:26:00,52.4,51.6,30.01,WSW,245,7.0,9.0,97,0.00,,---,0.00,VWS V14.01,2014-02-03 14:26:00,
2014-02-03 09:30:00,54.2,53.7,29.98,SW,219,17.0,19.0,98,0.00,,---,0.00,VWS V14.01,2014-02-03 14:30:00,
2014-02-03 09:31:00,53.0,52.2,30.00,SW,235,9.0,9.0,97,0.00,,---,0.00,VWS V14.01,2014-02-03 14:31:00,
2014-02-03 09:35:00,54.1,53.5,29.97,SW,215,18.0,20.0,98,0.00,,---,0.00,VWS V14.01,2014-02-03 14:35:00,
2014-02-03 09:36:00,53.4,52.6,30.00,SW,231,11.0,12.0,97,0.00,,---,0.00,VWS V14.01,2014-02-03 14:36:00,
2014-02-03 09:40:00,54.5,54.0,29.97,SW,226,17.0,20.0,98,0.00,,---,0.00,VWS V14.01,2014-02-03 14:40:00,
2014-02-03 09:41:00,54.5,53.7,30.00,WSW,242,13.0,14.0,97,0.00,,---,0.00,VWS V14.01,2014-02-03 14:41:00,
2014-02-03 09:45:00,55.1,54.5,29.98,WSW,242,13.0,18.0,98,0.00,,---,0.00,VWS V14.01,2014-02-03 14:45:00,
2014-02-03 09:46:00,55.1,54.5,30.00,WSW,242,13.0,14.0,98,0.00,,---,0.00,VWS V14.01,2014-02-03 14:46:00,
2014-02-03 09:50:00,54.4,53.8,29.98,WSW,239,11.0,14.0,98,0.00,,---,0.00,VWS V14.01,2014-02-03 14:50:00,
2014-02-03 09:51:00,55.0,54.2,30.00,SW,233,12.0,13.0,97,0.00,,---,0.00,VWS V14.01,2014-02-03 14:51:00,
2014-02-03 09:55:00,53.7,52.9,29.98,WSW,237,10.0,12.0,97,0.00,,---,0.00,VWS V14.01,2014-02-03 14:55:00,
2014-02-03 09:56:00,55.0,54.2,30.00,WSW,238,12.0,14.0,97,0.00,,---,0.00,VWS V14.01,2014-02-03 14:56:00,
2014-02-03 10:00:00,53.5,53.0,29.98,WSW,242,9.0,11.0,98,0.00,,---,0.00,VWS V14.01,2014-02-03 15:00:00,
2014-02-03 10:01:00,54.8,54.0,30.00,WSW,239,12.0,13.0,97,0.00,,---,0.00,VWS V14.01,2014-02-03 15:01:00,
2014-02-03 10:05:00,53.2,52.4,29.98,WSW,242,8.0,11.0,97,0.00,,---,0.00,VWS V14.01,2014-02-03 15:05:00,
2014-02-03 10:06:00,54.5,53.7,30.00,WSW,239,13.0,13.0,97,0.00,,---,0.00,VWS V14.01,2014-02-03 15:06:00,
2014-02-03 10:10:00,52.9,52.3,29.97,WSW,243,7.0,9.0,98,0.00,,---,0.00,VWS V14.01,2014-02-03 15:10:00,
2014-02-03 10:11:00,54.1,53.3,30.00,WSW,237,10.0,13.0,97,0.00,,---,0.00,VWS V14.01,2014-02-03 15:11:00,
2014-02-03 10:15:00,53.7,53.2,29.98,WSW,257,12.0,13.0,98,0.00,,---,0.00,VWS V14.01,2014-02-03 15:15:00,
2014-02-03 10:16:00,54.1,53.5,29.99,SW,229,13.0,16.0,98,0.00,,---,0.00,VWS V14.01,2014-02-03 15:16:00,
2014-02-03 10:20:00,53.7,53.2,29.98,West,269,13.0,15.0,98,0.00,,---,0.00,VWS V14.01,2014-02-03 15:20:00,
2014-02-03 10:21:00,54.1,53.5,29.99,WSW,238,14.0,15.0,98,0.00,,---,0.00,VWS V14.01,2014-02-03 15:21:00,
2014-02-03 10:25:00,53.7,53.2,29.98,West,266,15.0,16.0,98,0.00,,---,0.00,VWS V14.01,2014-02-03 15:25:00,
2014-02-03 10:26:00,54.1,53.5,29.99,SW,229,12.0,17.0,98,0.00,,---,0.00,VWS V14.01,2014-02-03 15:26:00,
2014-02-03 10:30:00,54.9,54.3,29.99,West,261,18.0,19.0,98,0.00,,---,0.00,VWS V14.01,2014-02-03 15:30:00,
2014-02-03 10:31:00,54.2,53.7,29.97,SSW,209,18.0,19.0,98,0.00,,---,0.00,VWS V14.01,2014-02-03 15:31:00,
2014-02-03 10:35:00,54.7,54.2,29.99,West,263,18.0,20.0,98,0.00,,---,0.00,VWS V14.01,2014-02-03 15:35:00,
2014-02-03 10:36:00,54.1,53.5,29.97,SSW,213,18.0,19.0,98,0.00,,---,0.00,VWS V14.01,2014-02-03 15:36:00,
2014-02-03 10:40:00,54.1,53.5,29.98,West,260,15.0,20.0,98,0.00,,---,0.00,VWS V14.01,2014-02-03 15:40:00,
2014-02-03 10:41:00,54.7,54.2,29.98,SW,232,17.0,18.0,98,0.00,,---,0.00,VWS V14.01,2014-02-03 15:41:00,
2014-02-03 10:45:00,53.3,52.8,29.98,WSW,257,14.0,15.0,98,0.00,,---,0.00,VWS V14.01,2014-02-03 15:45:00,
2014-02-03 10:46:00,55.1,54.5,29.98,WSW,244,12.0,14.0,98,0.00,,---,0.00,VWS V14.01,2014-02-03 15:46:00,
2014-02-03 10:50:00,52.8,52.2,29.98,WSW,253,13.0,17.0,98,0.00,,---,0.00,VWS V14.01,2014-02-03 15:50:00,
2014-02-03 10:51:00,54.2,53.4,29.98,WSW,240,10.0,11.0,97,0.00,,---,0.00,VWS V14.01,2014-02-03 15:51:00,
2014-02-03 10:55:00,53.2,52.7,29.97,WSW,245,15.0,16.0,98,0.00,,---,0.00,VWS V14.01,2014-02-03 15:55:00,
2014-02-03 10:56:00,53.7,52.9,29.98,WSW,240,10.0,11.0,97,0.00,,---,0.00,VWS V14.01,2014-02-03 15:56:00,
2014-02-03 11:00:00,53.5,53.0,29.97,West,260,13.0,16.0,98,0.00,,---,0.00,VWS V14.01,2014-02-03 16:00:00,
2014-02-03 11:01:00,53.4,52.8,29.98,WSW,240,10.0,11.0,98,0.00,,---,0.00,VWS V14.01,2014-02-03 16:01:00,
2014-02-03 11:05:00,53.0,52.5,29.97,West,261,13.0,14.0,98,0.00,,---,0.00,VWS V14.01,2014-02-03 16:05:00,
2014-02-03 11:06:00,53.1,52.3,29.98,WSW,240,9.0,9.0,97,0.00,,---,0.00,VWS V14.01,2014-02-03 16:06:00,
2014-02-03 11:10:00,53.2,52.7,29.97,WSW,256,12.0,15.0,98,0.00,,---,0.00,VWS V14.01,2014-02-03 16:10:00,
2014-02-03 11:11:00,52.8,52.2,29.98,West,270,10.0,11.0,98,0.00,,---,0.00,VWS V14.01,2014-02-03 16:11:00,
2014-02-03 11:15:00,52.6,52.0,29.96,WSW,251,10.0,13.0,98,0.00,,---,0.00,VWS V14.01,2014-02-03 16:15:00,
2014-02-03 11:16:00,54.0,53.5,29.98,West,259,14.0,14.0,98,0.00,,---,0.00,VWS V14.01,2014-02-03 16:16:00,
2014-02-03 11:20:00,52.4,51.8,29.96,WSW,246,10.0,12.0,98,0.00,,---,0.00,VWS V14.01,2014-02-03 16:20:00,
2014-02-03 11:21:00,53.4,52.8,29.98,West,269,13.0,14.0,98,0.00,,---,0.00,VWS V14.01,2014-02-03 16:21:00,
2014-02-03 11:25:00,52.3,51.8,29.96,West,262,9.0,11.0,98,0.00,,---,0.00,VWS V14.01,2014-02-03 16:25:00,
2014-02-03 11:26:00,54.2,53.7,29.99,West,271,15.0,16.0,98,0.00,,---,0.00,VWS V14.01,2014-02-03 16:26:00,
2014-02-03 11:30:00,52.4,51.8,29.95,West,263,10.0,11.0,98,0.00,,---,0.00,VWS V14.01,2014-02-03 16:30:00,
2014-02-03 11:31:00,55.0,54.5,29.99,West,265,19.0,19.0,98,0.00,,---,0.00,VWS V14.01,2014-02-03 16:31:00,
2014-02-03 11:35:00,52.4,51.8,29.95,West,262,9.0,11.0,98,0.00,,---,0.00,VWS V14.01,2014-02-03 16:35:00,
2014-02-03 11:36:00,54.5,54.0,29.99,West,260,19.0,20.0,98,0.00,,---,0.00,VWS V14.01,2014-02-03 16:36:00,
2014-02-03 11:40:00,52.8,52.2,29.95,West,273,12.0,13.0,98,0.00,,---,0.00,VWS V14.01,2014-02-03 16:40:00,
2014-02-03 11:41:00,53.9,53.3,29.98,West,259,14.0,15.0,98,0.00,,---,0.00,VWS V14.01,2014-02-03 16:41:00,
2014-02-03 11:45:00,54.6,54.0,29.95,West,265,16.0,19.0,98,0.00,,---,0.00,VWS V14.01,2014-02-03 16:45:00,
2014-02-03 11:46:00,53.1,52.3,29.98,WSW,255,12.0,15.0,97,0.00,,---,0.00,VWS V14.01,2014-02-03 16:46:00,
2014-02-03 11:50:00,54.5,54.0,29.95,WSW,246,16.0,18.0,98,0.00,,---,0.00,VWS V14.01,2014-02-03 16:50:00,
2014-02-03 11:51:00,52.9,52.3,29.98,WSW,251,15.0,16.0,98,0.00,,---,0.00,VWS V14.01,2014-02-03 16:51:00,
2014-02-03 11:55:00,54.5,54.0,29.94,WSW,240,17.0,19.0,98,0.00,,---,0.00,VWS V14.01,2014-02-03 16:55:00,
2014-02-03 11:56:00,53.3,52.8,29.97,WSW,247,14.0,15.0,98,0.00,,---,0.00,VWS V14.01,2014-02-03 16:56:00,
2014-02-03 12:00:00,54.5,54.0,29.94,WSW,238,15.0,18.0,98,0.00,,---,0.00,VWS V14.01,2014-02-03 17:00:00,
2014-02-03 12:01:00,53.4,52.8,29.97,West,265,11.0,14.0,98,0.00,,---,0.00,VWS V14.01,2014-02-03 17:01:00,
2014-02-03 12:05:00,54.1,53.5,29.94,WSW,249,15.0,17.0,98,0.00,,---,0.00,VWS V14.01,2014-02-03 17:05:00,
2014-02-03 12:06:00,53.1,52.5,29.97,WSW,256,13.0,14.0,98,0.00,,---,0.00,VWS V14.01,2014-02-03 17:06:00,
2014-02-03 12:10:00,53.8,53.2,29.94,WSW,248,14.0,17.0,98,0.00,,---,0.00,VWS V14.01,2014-02-03 17:10:00,
2014-02-03 12:11:00,53.2,52.7,29.97,West,259,11.0,13.0,98,0.00,,---,0.00,VWS V14.01,2014-02-03 17:11:00,
2014-02-03 12:15:00,53.8,53.2,29.94,WSW,249,17.0,17.0,98,0.00,,---,0.00,VWS V14.01,2014-02-03 17:15:00,
2014-02-03 12:16:00,52.5,51.7,29.96,WSW,245,8.0,10.0,97,0.00,,---,0.00,VWS V14.01,2014-02-03 17:16:00,
2014-02-03 12:20:00,54.0,53.5,29.94,West,260,14.0,17.0,98,0.00,,---,0.00,VWS V14.01,2014-02-03 17:20:00,
2014-02-03 12:21:00,52.4,51.8,29.96,West,261,10.0,11.0,98,0.00,,---,0.00,VWS V14.01,2014-02-03 17:21:00,
2014-02-03 12:25:00,53.9,53.3,29.95,West,266,15.0,16.0,98,0.00,,---,0.00,VWS V14.01,2014-02-03 17:25:00,
2014-02-03 12:26:00,52.3,51.8,29.96,West,261,10.0,11.0,98,0.00,,---,0.00,VWS V14.01,2014-02-03 17:26:00,
2014-02-03 12:30:00,53.7,53.2,29.94,West,260,15.0,17.0,98,0.00,,---,0.00,VWS V14.01,2014-02-03 17:30:00,
2014-02-03 12:31:00,52.4,51.8,29.95,West,264,10.0,10.0,98,0.00,,---,0.00,VWS V14.01,2014-02-03 17:31:00,
2014-02-03 12:35:00,53.0,52.5,29.94,West,264,12.0,15.0,98,0.00,,---,0.00,VWS V14.01,2014-02-03 17:35:00,
2014-02-03 12:36:00,52.4,51.8,29.95,West,262,10.0,10.0,98,0.00,,---,0.00,VWS V14.01,2014-02-03 17:36:00,
2014-02-03 12:40:00,52.6,52.0,29.94,West,259,12.0,15.0,98,0.00,,---,0.00,VWS V14.01,2014-02-03 17:40:00,
2014-02-03 12:41:00,53.1,52.5,29.95,West,272,12.0,13.0,98,0.00,,---,0.00,VWS V14.01,2014-02-03 17:41:00,
2014-02-03 12:45:00,52.3,51.8,29.94,WSW,256,12.0,14.0,98,0.00,,---,0.00,VWS V14.01,2014-02-03 17:45:00,
2014-02-03 12:46:00,54.6,54.0,29.95,WSW,258,15.0,17.0,98,0.00,,---,0.00,VWS V14.01,2014-02-03 17:46:00,
2014-02-03 12:50:00,52.3,51.8,29.94,WSW,257,11.0,13.0,98,0.00,,---,0.00,VWS V14.01,2014-02-03 17:50:00,
2014-02-03 12:51:00,54.5,54.0,29.95,WSW,255,18.0,18.0,98,0.00,,---,0.00,VWS V14.01,2014-02-03 17:51:00,
2014-02-03 12:55:00,52.1,51.6,29.94,West,259,10.0,12.0,98,0.00,,---,0.00,VWS V14.01,2014-02-03 17:55:00,
2014-02-03 12:56:00,54.5,54.0,29.94,WSW,248,15.0,18.0,98,0.00,,---,0.00,VWS V14.01,2014-02-03 17:56:00,
2014-02-03 13:00:00,51.7,51.2,29.93,West,259,11.0,12.0,98,0.00,,---,0.00,VWS V14.01,2014-02-03 18:00:00,
2014-02-03 13:01:00,54.4,53.8,29.94,WSW,242,15.0,15.0,98,0.00,,---,0.00,VWS V14.01,2014-02-03 18:01:00,
2014-02-03 13:05:00,51.6,51.1,29.93,WSW,258,11.0,11.0,98,0.00,,---,0.00,VWS V14.01,2014-02-03 18:05:00,
2014-02-03 13:06:00,54.0,53.5,29.94,WSW,254,16.0,17.0,98,0.00,,---,0.00,VWS V14.01,2014-02-03 18:06:00,
2014-02-03 13:10:00,51.6,51.1,29.93,WSW,254,10.0,11.0,98,0.00,,---,0.00,VWS V14.01,2014-02-03 18:10:00,
2014-02-03 13:11:00,53.7,53.2,29.94,WSW,245,15.0,16.0,98,0.00,,---,0.00,VWS V14.01,2014-02-03 18:11:00,
2014-02-03 13:15:00,51.7,51.2,29.93,West,259,10.0,11.0,98,0.00,,---,0.00,VWS V14.01,2014-02-03 18:15:00,
2014-02-03 13:16:00,53.9,53.3,29.94,WSW,249,15.0,17.0,98,0.00,,---,0.00,VWS V14.01,2014-02-03 18:16:00,
2014-02-03 13:20:00,51.7,51.2,29.93,WSW,257,9.0,11.0,98,0.00,,---,0.00,VWS V14.01,2014-02-03 18:20:00,
2014-02-03 13:21:00,53.9,53.3,29.94,West,261,16.0,16.0,98,0.00,,---,0.00,VWS V14.01,2014-02-03 18:21:00,
2014-02-03 13:25:00,51.7,51.2,29.93,WSW,255,10.0,11.0,98,0.00,,---,0.00,VWS V14.01,2014-02-03 18:25:00,
2014-02-03 13:26:00,54.2,53.7,29.94,WSW,257,13.0,17.0,98,0.00,,---,0.00,VWS V14.01,2014-02-03 18:26:00,
2014-02-03 13:30:00,51.7,51.2,29.93,WSW,257,10.0,11.0,98,0.00,,---,0.00,VWS V14.01,2014-02-03 18:30:00,
2014-02-03 13:31:00,53.5,53.0,29.95,West,265,13.0,15.0,98,0.00,,---,0.00,VWS V14.01,2014-02-03 18:31:00,
2014-02-03 13:35:00,51.8,51.3,29.93,WSW,254,10.0,12.0,98,0.00,,---,0.00,VWS V14.01,2014-02-03 18:35:00,
2014-02-03 13:36:00,52.8,52.2,29.94,West,266,13.0,13.0,98,0.00,,---,0.00,VWS V14.01,2014-02-03 18:36:00,
2014-02-03 13:40:00,51.7,51.2,29.93,WSW,256,10.0,11.0,98,0.00,,---,0.00,VWS V14.01,2014-02-03 18:40:00,
2014-02-03 13:41:00,52.5,52.0,29.94,West,259,12.0,13.0,98,0.00,,---,0.00,VWS V14.01,2014-02-03 18:41:00,
2014-02-03 13:45:00,51.6,51.1,29.93,WSW,255,9.0,10.0,98,0.00,,---,0.00,VWS V14.01,2014-02-03 18:45:00,
2014-02-03 13:46:00,52.3,51.8,29.94,WSW,258,13.0,13.0,98,0.00,,---,0.00,VWS V14.01,2014-02-03 18:46:00,
2014-02-03 13:50:00,51.5,51.0,29.93,WSW,248,9.0,10.0,98,0.00,,---,0.00,VWS V14.01,2014-02-03 18:50:00,
2014-02-03 13:51:00,52.3,51.8,29.94,WSW,256,12.0,12.0,98,0.00,,---,0.00,VWS V14.01,2014-02-03 18:51:00,
2014-02-03 13:55:00,51.3,50.8,29.93,WSW,244,9.0,10.0,98,0.00,,---,0.00,VWS V14.01,2014-02-03 18:55:00,
2014-02-03 13:56:00,51.9,51.4,29.94,West,259,11.0,11.0,98,0.00,,---,0.00,VWS V14.01,2014-02-03 18:56:00,
2014-02-03 14:00:00,51.1,50.6,29.93,WSW,242,6.0,9.0,98,0.00,,---,0.00,VWS V14.01,2014-02-03 19:00:00,
2014-02-03 14:01:00,51.7,51.2,29.93,West,261,11.0,11.0,98,0.00,,---,0.00,VWS V14.01,2014-02-03 19:01:00,
2014-02-03 14:05:00,50.9,50.4,29.93,WSW,247,6.0,9.0,98,0.00,,---,0.00,VWS V14.01,2014-02-03 19:05:00,
2014-02-03 14:06:00,51.6,51.1,29.93,WSW,257,9.0,11.0,98,0.00,,---,0.00,VWS V14.01,2014-02-03 19:06:00,
2014-02-03 14:10:00,51.2,50.7,29.93,WSW,245,9.0,10.0,98,0.00,,---,0.00,VWS V14.01,2014-02-03 19:10:00,
2014-02-03 14:11:00,51.6,51.1,29.93,WSW,254,10.0,11.0,98,0.00,,---,0.00,VWS V14.01,2014-02-03 19:11:00,
2014-02-03 14:15:00,51.4,50.9,29.93,WSW,245,8.0,12.0,98,0.00,,---,0.00,VWS V14.01,2014-02-03 19:15:00,
2014-02-03 14:16:00,51.7,51.2,29.93,West,259,9.0,10.0,98,0.00,,---,0.00,VWS V14.01,2014-02-03 19:16:00,
2014-02-03 14:20:00,51.5,51.0,29.92,WSW,244,8.0,11.0,98,0.00,,---,0.00,VWS V14.01,2014-02-03 19:20:00,
2014-02-03 14:21:00,51.7,51.2,29.93,WSW,257,9.0,10.0,98,0.00,,---,0.00,VWS V14.01,2014-02-03 19:21:00,
2014-02-03 14:25:00,51.6,51.1,29.93,West,266,8.0,9.0,98,0.00,,---,0.00,VWS V14.01,2014-02-03 19:25:00,
2014-02-03 14:26:00,51.7,51.2,29.93,WSW,255,11.0,11.0,98,0.00,,---,0.00,VWS V14.01,2014-02-03 19:26:00,
2014-02-03 14:30:00,51.9,51.3,29.93,WSW,247,11.0,11.0,98,0.00,,---,0.00,VWS V14.01,2014-02-03 19:30:00,
2014-02-03 14:31:00,51.8,51.3,29.93,WSW,255,10.0,12.0,98,0.00,,---,0.00,VWS V14.01,2014-02-03 19:31:00,
2014-02-03 14:35:00,52.5,52.0,29.93,WSW,256,10.0,13.0,98,0.00,,---,0.00,VWS V14.01,2014-02-03 19:35:00,
2014-02-03 14:36:00,51.8,51.3,29.93,WSW,254,10.0,11.0,98,0.00,,---,0.00,VWS V14.01,2014-02-03 19:36:00,
2014-02-03 14:40:00,52.6,52.0,29.93,WSW,255,12.0,13.0,98,0.00,,---,0.00,VWS V14.01,2014-02-03 19:40:00,
2014-02-03 14:41:00,51.7,51.2,29.93,WSW,257,9.0,10.0,98,0.00,,---,0.00,VWS V14.01,2014-02-03 19:41:00,
2014-02-03 14:45:00,52.4,51.8,29.94,West,259,10.0,14.0,98,0.00,,---,0.00,VWS V14.01,2014-02-03 19:45:00,
2014-02-03 14:46:00,51.7,51.2,29.93,WSW,255,9.0,10.0,98,0.00,,---,0.00,VWS V14.01,2014-02-03 19:46:00,
2014-02-03 14:50:00,52.3,51.8,29.93,West,259,11.0,12.0,98,0.00,,---,0.00,VWS V14.01,2014-02-03 19:50:00,
2014-02-03 14:51:00,51.5,51.0,29.93,WSW,248,9.0,10.0,98,0.00,,---,0.00,VWS V14.01,2014-02-03 19:51:00,
2014-02-03 14:55:00,52.1,51.6,29.94,West,263,12.0,13.0,98,0.00,,---,0.00,VWS V14.01,2014-02-03 19:55:00,
2014-02-03 14:56:00,51.2,50.7,29.93,WSW,243,8.0,9.0,98,0.00,,---,0.00,VWS V14.01,2014-02-03 19:56:00,
2014-02-03 15:00:00,51.8,51.3,29.95,West,265,10.0,13.0,98,0.00,,---,0.00,VWS V14.01,2014-02-03 20:00:00,
2014-02-03 15:01:00,51.0,50.5,29.93,WSW,242,8.0,8.0,98,0.00,,---,0.00,VWS V14.01,2014-02-03 20:01:00,
2014-02-03 15:05:00,52.0,51.5,29.95,WSW,257,11.0,14.0,98,0.00,,---,0.00,VWS V14.01,2014-02-03 20:05:00,
2014-02-03 15:06:00,50.9,50.4,29.93,WSW,244,9.0,9.0,98,0.00,,---,0.00,VWS V14.01,2014-02-03 20:06:00,
2014-02-03 15:10:00,51.7,51.2,29.95,West,263,9.0,12.0,98,0.00,,---,0.00,VWS V14.01,2014-02-03 20:10:00,
2014-02-03 15:11:00,51.2,50.7,29.93,WSW,251,10.0,11.0,98,0.00,,---,0.00,VWS V14.01,2014-02-03 20:11:00,
2014-02-03 15:15:00,51.4,50.9,29.95,West,262,9.0,12.0,98,0.00,,---,0.00,VWS V14.01,2014-02-03 20:15:00,
2014-02-03 15:16:00,51.4,50.9,29.93,WSW,250,10.0,11.0,98,0.00,,---,0.00,VWS V14.01,2014-02-03 20:16:00,
2014-02-03 15:20:00,51.1,50.6,29.95,WSW,257,8.0,11.0,98,0.00,,---,0.00,VWS V14.01,2014-02-03 20:20:00,
2014-02-03 15:21:00,51.5,51.0,29.92,WSW,241,6.0,8.0,98,0.00,,---,0.00,VWS V14.01,2014-02-03 20:21:00,
2014-02-03 15:25:00,50.9,50.4,29.95,West,260,11.0,11.0,98,0.00,,---,0.00,VWS V14.01,2014-02-03 20:25:00,
2014-02-03 15:26:00,51.7,51.2,29.93,West,259,9.0,9.0,98,0.00,,---,0.00,VWS V14.01,2014-02-03 20:26:00,
2014-02-03 15:30:00,50.9,50.4,29.96,West,259,9.0,11.0,98,0.00,,---,0.00,VWS V14.01,2014-02-03 20:30:00,
2014-02-03 15:31:00,52.1,51.5,29.93,WSW,240,11.0,11.0,98,0.00,,---,0.00,VWS V14.01,2014-02-03 20:31:00,
2014-02-03 15:35:00,50.9,50.4,29.96,West,263,10.0,12.0,98,0.00,,---,0.00,VWS V14.01,2014-02-03 20:35:00,
2014-02-03 15:36:00,52.5,52.0,29.93,WSW,250,12.0,13.0,98,0.00,,---,0.00,VWS V14.01,2014-02-03 20:36:00,
2014-02-03 15:40:00,50.8,50.3,29.96,West,266,10.0,11.0,98,0.00,,---,0.00,VWS V14.01,2014-02-03 20:40:00,
2014-02-03 15:41:00,52.6,52.0,29.93,West,259,10.0,13.0,98,0.00,,---,0.00,VWS V14.01,2014-02-03 20:41:00,
2014-02-03 15:45:00,50.7,50.2,29.96,West,261,10.0,11.0,98,0.00,,---,0.00,VWS V14.01,2014-02-03 20:45:00,
2014-02-03 15:46:00,52.4,51.8,29.93,WSW,257,11.0,11.0,98,0.00,,---,0.00,VWS V14.01,2014-02-03 20:46:00,
2014-02-03 15:50:00,50.7,50.2,29.97,West,259,11.0,12.0,98,0.00,,---,0.00,VWS V14.01,2014-02-03 20:50:00,
2014-02-03 15:51:00,52.3,51.8,29.94,West,263,10.0,12.0,98,0.00,,---,0.00,VWS V14.01,2014-02-03 20:51:00,
2014-02-03 15:55:00,50.7,50.2,29.97,West,261,10.0,12.0,98,0.00,,---,0.00,VWS V14.01,2014-02-03 20:55:00,
2014-02-03 15:56:00,52.0,51.5,29.95,West,264,12.0,13.0,98,0.00,,---,0.00,VWS V14.01,2014-02-03 20:56:00,
2014-02-03 16:00:00,50.6,50.1,29.96,WSW,257,10.0,12.0,98,0.00,,---,0.00,VWS V14.01,2014-02-03 21:00:00,
2014-02-03 16:01:00,51.7,51.2,29.95,West,273,10.0,11.0,98,0.00,,---,0.00,VWS V14.01,2014-02-03 21:01:00,
2014-02-03 16:05:00,50.5,50.0,29.96,WSW,258,10.0,12.0,98,0.00,,---,0.00,VWS V14.01,2014-02-03 21:05:00,
2014-02-03 16:06:00,52.1,51.5,29.95,West,267,11.0,12.0,98,0.00,,---,0.00,VWS V14.01,2014-02-03 21:06:00,
2014-02-03 16:10:00,50.2,49.7,29.96,WSW,255,9.0,12.0,98,0.00,,---,0.00,VWS V14.01,2014-02-03 21:10:00,
2014-02-03 16:11:00,51.6,51.1,29.95,West,262,11.0,11.0,98,0.00,,---,0.00,VWS V14.01,2014-02-03 21:11:00,
2014-02-03 16:15:00,50.0,49.5,29.96,WSW,255,9.0,10.0,98,0.00,,---,0.00,VWS V14.01,2014-02-03 21:15:00,
2014-02-03 16:16:00,51.3,50.8,29.95,West,263,9.0,11.0,98,0.00,,---,0.00,VWS V14.01,2014-02-03 21:16:00,
2014-02-03 16:20:00,49.8,49.3,29.97,WSW,252,9.0,10.0,98,0.00,,---,0.00,VWS V14.01,2014-02-03 21:20:00,
2014-02-03 16:21:00,51.0,50.5,29.95,West,268,10.0,10.0,98,0.00,,---,0.00,VWS V14.01,2014-02-03 21:21:00,
2014-02-03 16:25:00,49.7,49.2,29.97,WSW,254,9.0,9.0,98,0.00,,---,0.00,VWS V14.01,2014-02-03 21:25:00,
2014-02-03 16:26:00,50.9,50.4,29.96,West,265,11.0,11.0,98,0.00,,---,0.00,VWS V14.01,2014-02-03 21:26:00,
2014-02-03 16:30:00,49.7,49.2,29.97,WSW,253,7.0,9.0,98,0.00,,---,0.00,VWS V14.01,2014-02-03 21:30:00,
2014-02-03 16:31:00,51.0,50.5,29.96,West,265,10.0,11.0,98,0.00,,---,0.00,VWS V14.01,2014-02-03 21:31:00,
2014-02-03 16:35:00,49.8,49.3,29.98,West,268,7.0,9.0,98,0.00,,---,0.00,VWS V14.01,2014-02-03 21:35:00,
2014-02-03 16:36:00,50.9,50.4,29.96,West,261,10.0,11.0,98,0.00,,---,0.00,VWS V14.01,2014-02-03 21:36:00,
2014-02-03 16:40:00,49.7,49.2,29.98,West,272,3.0,7.0,98,0.00,,---,0.00,VWS V14.01,2014-02-03 21:40:00,
2014-02-03 16:41:00,50.8,50.3,29.96,West,261,9.0,10.0,98,0.00,,---,0.00,VWS V14.01,2014-02-03 21:41:00,
2014-02-03 16:45:00,49.7,49.2,29.98,WSW,254,6.0,7.0,98,0.00,,---,0.00,VWS V14.01,2014-02-03 21:45:00,
2014-02-03 16:46:00,50.7,50.2,29.97,West,263,10.0,11.0,98,0.00,,---,0.00,VWS V14.01,2014-02-03 21:46:00,
2014-02-03 16:50:00,49.9,49.4,29.99,WSW,254,6.0,8.0,98,0.00,,---,0.00,VWS V14.01,2014-02-03 21:50:00,
2014-02-03 16:51:00,50.7,50.2,29.97,West,260,12.0,12.0,98,0.00,,---,0.00,VWS V14.01,2014-02-03 21:51:00,
2014-02-03 16:55:00,49.8,49.3,29.99,WSW,257,3.0,6.0,98,0.00,,---,0.00,VWS V14.01,2014-02-03 21:55:00,
2014-02-03 16:56:00,50.6,50.1,29.97,West,259,12.0,12.0,98,0.00,,---,0.00,VWS V14.01,2014-02-03 21:56:00,
2014-02-03 17:00:00,49.6,49.1,29.99,WNW,292,4.0,4.0,98,0.00,,---,0.00,VWS V14.01,2014-02-03 22:00:00,
2014-02-03 17:01:00,50.6,50.1,29.96,West,259,11.0,12.0,98,0.00,,---,0.00,VWS V14.01,2014-02-03 22:01:00,
2014-02-03 17:05:00,51.9,51.3,30.02,NNW,333,7.0,18.0,98,0.00,,---,0.00,VWS V14.01,2014-02-03 22:05:00,
2014-02-03 17:06:00,50.3,49.8,29.96,WSW,252,11.0,11.0,98,0.00,,---,0.00,VWS V14.01,2014-02-03 22:06:00,
2014-02-03 17:10:00,53.4,52.8,30.02,North,349,3.0,11.0,98,0.00,,---,0.00,VWS V14.01,2014-02-03 22:10:00,
2014-02-03 17:11:00,50.1,49.6,29.96,WSW,254,9.0,10.0,98,0.00,,---,0.00,VWS V14.01,2014-02-03 22:11:00,
2014-02-03 17:15:00,53.8,53.5,30.02,NE,45,2.0,7.0,99,0.00,,---,0.00,VWS V14.01,2014-02-03 22:15:00,
2014-02-03 17:16:00,49.9,49.4,29.97,WSW,255,9.0,10.0,98,0.00,,---,0.00,VWS V14.01,2014-02-03 22:16:00,
2014-02-03 17:20:00,54.5,54.2,30.03,North,355,10.0,13.0,99,0.00,,---,0.00,VWS V14.01,2014-02-03 22:20:00,
2014-02-03 17:21:00,49.8,49.3,29.97,WSW,254,8.0,9.0,98,0.00,,---,0.00,VWS V14.01,2014-02-03 22:21:00,
2014-02-03 17:25:00,54.2,53.7,30.04,NNE,14,18.0,22.0,98,0.00,,---,0.00,VWS V14.01,2014-02-03 22:25:00,
2014-02-03 17:26:00,49.7,49.2,29.97,WSW,253,8.0,9.0,98,0.00,,---,0.00,VWS V14.01,2014-02-03 22:26:00,
2014-02-03 17:30:00,53.5,53.0,30.05,NNE,19,16.0,22.0,98,0.00,,---,0.00,VWS V14.01,2014-02-03 22:30:00,
2014-02-03 17:31:00,49.7,49.2,29.98,WSW,255,9.0,9.0,98,0.00,,---,0.00,VWS V14.01,2014-02-03 22:31:00,
2014-02-03 17:35:00,52.7,52.2,30.05,NNE,30,7.0,16.0,98,0.00,,---,0.00,VWS V14.01,2014-02-03 22:35:00,
2014-02-03 17:36:00,49.8,49.3,29.98,West,270,6.0,7.0,98,0.00,,---,0.00,VWS V14.01,2014-02-03 22:36:00,
2014-02-03 17:40:00,52.3,51.8,30.06,NNE,14,9.0,19.0,98,0.00,,---,0.00,VWS V14.01,2014-02-03 22:40:00,
2014-02-03 17:41:00,49.7,49.2,29.98,West,259,5.0,5.0,98,0.00,,---,0.00,VWS V14.01,2014-02-03 22:41:00,
2014-02-03 17:45:00,51.9,51.3,30.06,NNE,15,13.0,18.0,98,0.00,,---,0.00,VWS V14.01,2014-02-03 22:45:00,
2014-02-03 17:46:00,49.8,49.3,29.98,WSW,252,8.0,8.0,98,0.00,,---,0.00,VWS V14.01,2014-02-03 22:46:00,
2014-02-03 17:50:00,51.5,51.0,30.06,North,10,11.0,21.0,98,0.00,,---,0.00,VWS V14.01,2014-02-03 22:50:00,
2014-02-03 17:51:00,49.9,49.4,29.99,WSW,255,5.0,6.0,98,0.00,,---,0.00,VWS V14.01,2014-02-03 22:51:00,
2014-02-03 17:55:00,51.4,50.9,30.07,North,11,11.0,19.0,98,0.00,,---,0.00,VWS V14.01,2014-02-03 22:55:00,
2014-02-03 17:56:00,49.7,49.2,29.99,WSW,257,2.0,3.0,98,0.00,,---,0.00,VWS V14.01,2014-02-03 22:56:00,
2014-02-03 18:00:00,51.3,50.8,30.07,NNE,32,11.0,19.0,98,0.00,,---,0.00,VWS V14.01,2014-02-03 23:00:00,
2014-02-03 18:01:00,49.7,49.2,30.02,North,350,16.0,16.0,98,0.00,,---,0.00,VWS V14.01,2014-02-03 23:01:00,
2014-02-03 18:05:00,51.3,50.8,30.08,NNE,18,11.0,16.0,98,0.00,,---,0.00,VWS V14.01,2014-02-03 23:05:00,
2014-02-03 18:06:00,52.5,52.0,30.02,NW,320,7.0,11.0,98,0.00,,---,0.00,VWS V14.01,2014-02-03 23:06:00,
2014-02-03 18:10:00,51.2,50.4,30.08,NE,39,10.0,13.0,97,0.00,,---,0.00,VWS V14.01,2014-02-03 23:10:00,
2014-02-03 18:11:00,53.5,53.0,30.02,NNW,348,7.0,7.0,98,0.00,,---,0.00,VWS V14.01,2014-02-03 23:11:00,
2014-02-03 18:15:00,51.2,50.4,30.08,NE,34,5.0,14.0,97,0.00,,---,0.00,VWS V14.01,2014-02-03 23:15:00,
2014-02-03 18:16:00,54.0,53.7,30.03,North,5,9.0,9.0,99,0.00,,---,0.00,VWS V14.01,2014-02-03 23:16:00,
2014-02-03 18:20:00,51.0,50.2,30.08,NNE,30,10.0,20.0,97,0.00,,---,0.00,VWS V14.01,2014-02-03 23:20:00,
2014-02-03 18:21:00,54.6,54.3,30.04,NNE,21,7.0,14.0,99,0.00,,---,0.00,VWS V14.01,2014-02-03 23:21:00,
2014-02-03 18:25:00,50.8,50.0,30.08,NNE,30,11.0,16.0,97,0.00,,---,0.00,VWS V14.01,2014-02-03 23:25:00,
2014-02-03 18:26:00,53.9,53.3,30.04,North,5,10.0,22.0,98,0.00,,---,0.00,VWS V14.01,2014-02-03 23:26:00,
2014-02-03 18:30:00,50.6,49.8,30.09,NNE,31,12.0,16.0,97,0.00,,---,0.00,VWS V14.01,2014-02-03 23:30:00,
2014-02-03 18:31:00,53.2,52.7,30.04,NNE,13,8.0,16.0,98,0.00,,---,0.00,VWS V14.01,2014-02-03 23:31:00,
2014-02-03 18:35:00,50.6,49.8,30.09,North,10,7.0,16.0,97,0.00,,---,0.00,VWS V14.01,2014-02-03 23:35:00,
2014-02-03 18:36:00,52.6,52.0,30.05,NNW,329,7.0,15.0,98,0.00,,---,0.00,VWS V14.01,2014-02-03 23:36:00,
2014-02-03 18:40:00,50.6,49.8,30.09,NNE,33,10.0,14.0,97,0.00,,---,0.00,VWS V14.01,2014-02-03 23:40:00,
2014-02-03 18:41:00,52.3,51.8,30.06,North,360,11.0,14.0,98,0.00,,---,0.00,VWS V14.01,2014-02-03 23:41:00,
2014-02-03 18:45:00,50.6,49.5,30.10,North,360,5.0,11.0,96,0.00,,---,0.00,VWS V14.01,2014-02-03 23:45:00,
2014-02-03 18:46:00,51.8,51.3,30.06,NNE,15,16.0,21.0,98,0.00,,---,0.00,VWS V14.01,2014-02-03 23:46:00,
2014-02-03 18:50:00,50.6,49.8,30.10,NE,35,7.0,13.0,97,0.00,,---,0.00,VWS V14.01,2014-02-03 23:50:00,
2014-02-03 18:51:00,51.5,51.0,30.06,North,9,15.0,19.0,98,0.00,,---,0.00,VWS V14.01,2014-02-03 23:51:00,
2014-02-03 18:55:00,50.5,49.4,30.10,NNE,28,10.0,11.0,96,0.00,,---,0.00,VWS V14.01,2014-02-03 23:55:00,
2014-02-03 18:56:00,51.3,50.8,30.07,NE,38,14.0,19.0,98,0.00,,---,0.00,VWS V14.01,2014-02-03 23:56:00,
2014-02-03 19:00:00,50.4,49.3,30.10,NNE,24,6.0,14.0,96,0.00,,---,0.00,VWS V14.01,2014-02-04 00:00:00,
2014-02-03 19:01:00,51.3,50.8,30.07,NNE,31,14.0,16.0,98,0.00,,---,0.00,VWS V14.01,2014-02-04 00:01:00,
2014-02-03 19:05:00,50.3,49.2,30.11,NNE,20,10.0,15.0,96,0.00,,---,0.00,VWS V14.01,2014-02-04 00:05:00,
2014-02-03 19:06:00,51.2,50.7,30.08,NNE,21,8.0,11.0,98,0.00,,---,0.00,VWS V14.01,2014-02-04 00:06:00,
2014-02-03 19:10:00,50.1,48.7,30.11,North,355,6.0,13.0,95,0.00,,---,0.00,VWS V14.01,2014-02-04 00:10:00,
2014-02-03 19:11:00,51.2,50.4,30.08,NE,46,13.0,14.0,97,0.00,,---,0.00,VWS V14.01,2014-02-04 00:11:00,
2014-02-03 19:15:00,50.1,48.7,30.12,NNE,31,11.0,17.0,95,0.00,,---,0.00,VWS V14.01,2014-02-04 00:15:00,
2014-02-03 19:16:00,51.2,50.4,30.08,NE,37,8.0,10.0,97,0.00,,---,0.00,VWS V14.01,2014-02-04 00:16:00,
2014-02-03 19:20:00,50.0,48.6,30.12,NE,37,8.0,15.0,95,0.00,,---,0.00,VWS V14.01,2014-02-04 00:20:00,
2014-02-03 19:21:00,50.9,50.1,30.08,NE,42,11.0,13.0,97,0.00,,---,0.00,VWS V14.01,2014-02-04 00:21:00,
2014-02-03 19:25:00,49.8,48.4,30.12,NE,49,9.0,16.0,95,0.00,,---,0.00,VWS V14.01,2014-02-04 00:25:00,
2014-02-03 19:26:00,50.8,50.0,30.08,NNE,22,9.0,13.0,97,0.00,,---,0.00,VWS V14.01,2014-02-04 00:26:00,
2014-02-03 19:30:00,49.7,48.0,30.12,NNE,25,14.0,16.0,94,0.00,,---,0.00,VWS V14.01,2014-02-04 00:30:00,
2014-02-03 19:31:00,50.6,49.8,30.09,NE,44,10.0,16.0,97,0.00,,---,0.00,VWS V14.01,2014-02-04 00:31:00,
2014-02-03 19:35:00,49.4,47.5,30.12,NE,38,17.0,17.0,93,0.00,,---,0.00,VWS V14.01,2014-02-04 00:35:00,
2014-02-03 19:36:00,50.6,49.8,30.09,NNE,28,8.0,14.0,97,0.00,,---,0.00,VWS V14.01,2014-02-04 00:36:00,
2014-02-03 19:40:00,49.1,46.9,30.12,NNE,28,14.0,18.0,92,0.00,,---,0.00,VWS V14.01,2014-02-04 00:40:00,
2014-02-03 19:41:00,50.6,49.8,30.09,NE,38,5.0,10.0,97,0.00,,---,0.00,VWS V14.01,2014-02-04 00:41:00,
2014-02-03 19:45:00,49.1,46.9,30.13,NE,49,12.0,19.0,92,0.00,,---,0.00,VWS V14.01,2014-02-04 00:45:00,
2014-02-03 19:46:00,50.6,49.8,30.10,NNE,24,9.0,9.0,97,0.00,,---,0.00,VWS V14.01,2014-02-04 00:46:00,
2014-02-03 19:50:00,49.0,46.5,30.13,NE,51,11.0,18.0,91,0.00,,---,0.00,VWS V14.01,2014-02-04 00:50:00,
2014-02-03 19:51:00,50.5,49.7,30.10,NNE,22,7.0,9.0,97,0.00,,---,0.00,VWS V14.01,2014-02-04 00:51:00,
2014-02-03 19:55:00,48.9,46.4,30.14,NNE,25,10.0,15.0,91,0.00,,---,0.00,VWS V14.01,2014-02-04 00:55:00,
2014-02-03 19:56:00,50.4,49.3,30.11,NNE,12,8.0,14.0,96,0.00,,---,0.00,VWS V14.01,2014-02-04 00:56:00,
2014-02-03 20:00:00,48.8,46.0,30.14,NE,46,12.0,17.0,90,0.00,,---,0.00,VWS V14.01,2014-02-04 01:00:00,
2014-02-03 20:01:00,50.4,49.3,30.11,NE,44,8.0,8.0,96,0.00,,---,0.00,VWS V14.01,2014-02-04 01:01:00,
2014-02-03 20:05:00,48.7,45.9,30.14,NE,39,8.0,14.0,90,0.00,,---,0.00,VWS V14.01,2014-02-04 01:05:00,
2014-02-03 20:06:00,50.2,49.1,30.11,NNE,12,10.0,12.0,96,0.00,,---,0.00,VWS V14.01,2014-02-04 01:06:00,
2014-02-03 20:10:00,48.6,45.8,30.15,North,5,10.0,13.0,90,0.00,,---,0.00,VWS V14.01,2014-02-04 01:10:00,
2014-02-03 20:11:00,50.1,48.7,30.11,NE,56,7.0,12.0,95,0.00,,---,0.00,VWS V14.01,2014-02-04 01:11:00,
2014-02-03 20:15:00,48.4,45.3,30.15,NNE,15,10.0,13.0,89,0.00,,---,0.00,VWS V14.01,2014-02-04 01:15:00,
2014-02-03 20:16:00,50.1,48.7,30.12,NE,46,8.0,13.0,95,0.00,,---,0.00,VWS V14.01,2014-02-04 01:16:00,
2014-02-03 20:20:00,48.3,45.2,30.16,NNE,29,8.0,13.0,89,0.00,,---,0.00,VWS V14.01,2014-02-04 01:20:00,
2014-02-03 20:21:00,49.9,48.5,30.12,NE,42,15.0,15.0,95,0.00,,---,0.00,VWS V14.01,2014-02-04 01:21:00,
2014-02-03 20:25:00,48.2,45.1,30.16,NNE,32,8.0,12.0,89,0.00,,---,0.00,VWS V14.01,2014-02-04 01:25:00,
2014-02-03 20:26:00,49.7,48.0,30.12,NNE,23,13.0,16.0,94,0.00,,---,0.00,VWS V14.01,2014-02-04 01:26:00,
2014-02-03 20:30:00,48.1,45.0,30.16,NNE,31,7.0,13.0,89,0.00,,---,0.00,VWS V14.01,2014-02-04 01:30:00,
2014-02-03 20:31:00,49.6,48.0,30.12,North,5,11.0,15.0,94,0.00,,---,0.00,VWS V14.01,2014-02-04 01:31:00,
2014-02-03 20:35:00,48.0,44.9,30.17,NE,43,8.0,14.0,89,0.00,,---,0.00,VWS V14.01,2014-02-04 01:35:00,
2014-02-03 20:36:00,49.4,47.5,30.12,NE,47,7.0,17.0,93,0.00,,---,0.00,VWS V14.01,2014-02-04 01:36:00,
2014-02-03 20:40:00,47.9,44.8,30.17,NNE,33,10.0,13.0,89,0.00,,---,0.00,VWS V14.01,2014-02-04 01:40:00,
2014-02-03 20:41:00,49.1,46.9,30.13,NE,34,9.0,15.0,92,0.00,,---,0.00,VWS V14.01,2014-02-04 01:41:00,
2014-02-03 20:45:00,47.7,44.6,30.17,NE,41,8.0,13.0,89,0.00,,---,0.00,VWS V14.01,2014-02-04 01:45:00,
2014-02-03 20:46:00,49.1,46.9,30.13,NNE,22,11.0,18.0,92,0.00,,---,0.00,VWS V14.01,2014-02-04 01:46:00,
2014-02-03 20:50:00,47.6,44.2,30.17,NE,42,5.0,16.0,88,0.00,,---,0.00,VWS V14.01,2014-02-04 01:50:00,
2014-02-03 20:51:00,49.0,46.5,30.13,NNE,29,11.0,13.0,91,0.00,,---,0.00,VWS V14.01,2014-02-04 01:51:00,
2014-02-03 20:55:00,47.5,44.1,30.17,NE,51,9.0,12.0,88,0.00,,---,0.00,VWS V14.01,2014-02-04 01:55:00,
2014-02-03 20:56:00,48.9,46.4,30.14,NE,37,9.0,10.0,91,0.00,,---,0.00,VWS V14.01,2014-02-04 01:56:00,
2014-02-03 21:00:00,47.4,44.0,30.17,NE,49,7.0,14.0,88,0.00,,---,0.00,VWS V14.01,2014-02-04 02:00:00,
2014-02-03 21:01:00,48.8,46.0,30.14,NNE,17,9.0,13.0,90,0.00,,---,0.00,VWS V14.01,2014-02-04 02:01:00,
2014-02-03 21:05:00,47.2,43.5,30.17,NNE,19,6.0,14.0,87,0.00,,---,0.00,VWS V14.01,2014-02-04 02:05:00,
2014-02-03 21:06:00,48.7,45.9,30.15,NNE,32,8.0,12.0,90,0.00,,---,0.00,VWS V14.01,2014-02-04 02:06:00,
2014-02-03 21:10:00,47.0,43.3,30.17,NE,43,7.0,18.0,87,0.00,,---,0.00,VWS V14.01,2014-02-04 02:10:00,
2014-02-03 21:11:00,48.6,45.8,30.15,NE,36,5.0,10.0,90,0.00,,---,0.00,VWS V14.01,2014-02-04 02:11:00,
2014-02-03 21:15:00,46.9,43.2,30.17,NE,49,4.0,12.0,87,0.00,,---,0.00,VWS V14.01,2014-02-04 02:15:00,
2014-02-03 21:16:00,48.4,45.3,30.15,NNE,29,9.0,13.0,89,0.00,,---,0.00,VWS V14.01,2014-02-04 02:16:00,
2014-02-03 21:20:00,46.8,43.1,30.17,NE,43,5.0,13.0,87,0.00,,---,0.00,VWS V14.01,2014-02-04 02:20:00,
2014-02-03 21:21:00,48.3,45.2,30.16,NNE,29,8.0,8.0,89,0.00,,---,0.00,VWS V14.01,2014-02-04 02:21:00,
2014-02-03 21:25:00,46.6,42.9,30.17,ENE,63,5.0,14.0,87,0.00,,---,0.00,VWS V14.01,2014-02-04 02:25:00,
2014-02-03 21:26:00,48.2,45.1,30.16,NNE,26,9.0,12.0,89,0.00,,---,0.00,VWS V14.01,2014-02-04 02:26:00,
2014-02-03 21:30:00,46.4,42.8,30.17,NNE,23,12.0,14.0,87,0.00,,---,0.00,VWS V14.01,2014-02-04 02:30:00,
2014-02-03 21:31:00,48.1,45.0,30.16,NNE,12,7.0,7.0,89,0.00,,---,0.00,VWS V14.01,2014-02-04 02:31:00,
2014-02-03 21:35:00,46.2,42.8,30.17,NE,35,11.0,14.0,88,0.00,,---,0.00,VWS V14.01,2014-02-04 02:35:00,
2014-02-03 21:36:00,48.1,45.0,30.16,NE,44,7.0,8.0,89,0.00,,---,0.00,VWS V14.01,2014-02-04 02:36:00,
2014-02-03 21:40:00,46.0,42.7,30.18,NNE,22,9.0,15.0,88,0.00,,---,0.00,VWS V14.01,2014-02-04 02:40:00,
2014-02-03 21:41:00,47.8,44.7,30.16,NE,53,10.0,10.0,89,0.00,,---,0.00,VWS V14.01,2014-02-04 02:41:00,
2014-02-03 21:45:00,45.9,42.5,30.17,NE,40,9.0,14.0,88,0.00,,---,0.00,VWS V14.01,2014-02-04 02:45:00,
2014-02-03 21:46:00,47.7,44.6,30.17,NNE,33,11.0,11.0,89,0.00,,---,0.00,VWS V14.01,2014-02-04 02:46:00,
2014-02-03 21:50:00,45.7,42.4,30.18,NNE,25,5.0,13.0,88,0.00,,---,0.00,VWS V14.01,2014-02-04 02:50:00,
2014-02-03 21:51:00,47.6,44.2,30.17,NE,42,9.0,12.0,88,0.00,,---,0.00,VWS V14.01,2014-02-04 02:51:00,
2014-02-03 21:55:00,45.6,42.3,30.18,ENE,57,15.0,16.0,88,0.00,,---,0.00,VWS V14.01,2014-02-04 02:55:00,
2014-02-03 21:56:00,47.5,44.1,30.17,ENE,57,13.0,13.0,88,0.00,,---,0.00,VWS V14.01,2014-02-04 02:56:00,
2014-02-03 22:00:00,45.4,42.1,30.18,NE,53,8.0,15.0,88,0.00,,---,0.00,VWS V14.01,2014-02-04 03:00:00,
2014-02-03 22:01:00,47.3,43.9,30.17,NNE,20,7.0,12.0,88,0.00,,---,0.00,VWS V14.01,2014-02-04 03:01:00,
2014-02-03 22:05:00,45.3,42.0,30.18,NE,49,11.0,14.0,88,0.00,,---,0.00,VWS V14.01,2014-02-04 03:05:00,
2014-02-03 22:06:00,47.2,43.5,30.17,NNE,18,11.0,12.0,87,0.00,,---,0.00,VWS V14.01,2014-02-04 03:06:00,
2014-02-03 22:10:00,45.2,41.9,30.18,NE,40,13.0,16.0,88,0.00,,---,0.00,VWS V14.01,2014-02-04 03:10:00,
2014-02-03 22:11:00,47.0,43.3,30.17,NNE,19,9.0,12.0,87,0.00,,---,0.00,VWS V14.01,2014-02-04 03:11:00,
2014-02-03 22:15:00,45.1,42.1,30.18,NE,39,6.0,13.0,89,0.00,,---,0.00,VWS V14.01,2014-02-04 03:15:00,
2014-02-03 22:16:00,46.9,43.2,30.17,NE,55,8.0,13.0,87,0.00,,---,0.00,VWS V14.01,2014-02-04 03:16:00,
2014-02-03 22:20:00,45.0,42.0,30.19,ENE,61,9.0,13.0,89,0.00,,---,0.00,VWS V14.01,2014-02-04 03:20:00,
2014-02-03 22:21:00,46.8,43.1,30.17,NE,38,10.0,10.0,87,0.00,,---,0.00,VWS V14.01,2014-02-04 03:21:00,
2014-02-03 22:25:00,44.8,41.8,30.19,ENE,59,14.0,14.0,89,0.00,,---,0.00,VWS V14.01,2014-02-04 03:25:00,
2014-02-03 22:26:00,46.5,42.8,30.18,ENE,60,5.0,13.0,87,0.00,,---,0.00,VWS V14.01,2014-02-04 03:26:00,
2014-02-03 22:30:00,44.5,41.2,30.19,NE,41,7.0,17.0,88,0.00,,---,0.00,VWS V14.01,2014-02-04 03:30:00,
2014-02-03 22:31:00,46.3,42.7,30.17,East,82,6.0,13.0,87,0.00,,---,0.00,VWS V14.01,2014-02-04 03:31:00,
2014-02-03 22:35:00,44.3,40.7,30.19,NNE,18,13.0,17.0,87,0.00,,---,0.00,VWS V14.01,2014-02-04 03:35:00,
2014-02-03 22:36:00,46.2,42.8,30.18,ENE,69,8.0,15.0,88,0.00,,---,0.00,VWS V14.01,2014-02-04 03:36:00,
2014-02-03 22:40:00,44.1,40.5,30.20,NNE,33,15.0,16.0,87,0.00,,---,0.00,VWS V14.01,2014-02-04 03:40:00,
2014-02-03 22:41:00,46.0,42.7,30.17,NE,34,11.0,14.0,88,0.00,,---,0.00,VWS V14.01,2014-02-04 03:41:00,
2014-02-03 22:45:00,43.9,40.3,30.20,ENE,58,7.0,15.0,87,0.00,,---,0.00,VWS V14.01,2014-02-04 03:45:00,
2014-02-03 22:46:00,45.8,42.5,30.18,NE,52,10.0,13.0,88,0.00,,---,0.00,VWS V14.01,2014-02-04 03:46:00,
2014-02-03 22:50:00,43.7,40.1,30.19,ENE,62,13.0,16.0,87,0.00,,---,0.00,VWS V14.01,2014-02-04 03:50:00,
2014-02-03 22:51:00,45.7,42.4,30.18,ENE,76,10.0,13.0,88,0.00,,---,0.00,VWS V14.01,2014-02-04 03:51:00,
2014-02-03 22:55:00,43.4,39.8,30.19,NE,46,8.0,16.0,87,0.00,,---,0.00,VWS V14.01,2014-02-04 03:55:00,
2014-02-03 22:56:00,45.5,42.2,30.18,East,84,7.0,15.0,88,0.00,,---,0.00,VWS V14.01,2014-02-04 03:56:00,
2014-02-03 23:00:00,43.1,39.2,30.19,NE,49,13.0,19.0,86,0.00,,---,0.00,VWS V14.01,2014-02-04 04:00:00,
2014-02-03 23:01:00,45.4,42.1,30.18,NNE,30,10.0,14.0,88,0.00,,---,0.00,VWS V14.01,2014-02-04 04:01:00,
2014-02-03 23:05:00,42.7,38.8,30.20,NE,42,9.0,18.0,86,0.00,,---,0.00,VWS V14.01,2014-02-04 04:05:00,
2014-02-03 23:06:00,45.3,42.0,30.18,NE,44,10.0,13.0,88,0.00,,---,0.00,VWS V14.01,2014-02-04 04:06:00,
2014-02-03 23:10:00,42.4,38.5,30.20,NE,41,18.0,18.0,86,0.00,,---,0.00,VWS V14.01,2014-02-04 04:10:00,
2014-02-03 23:11:00,45.2,41.9,30.19,NNE,30,11.0,13.0,88,0.00,,---,0.00,VWS V14.01,2014-02-04 04:11:00,
2014-02-03 23:15:00,42.2,38.3,30.20,NE,55,13.0,20.0,86,0.00,,---,0.00,VWS V14.01,2014-02-04 04:15:00,
2014-02-03 23:16:00,45.1,42.1,30.18,NE,35,10.0,11.0,89,0.00,,---,0.00,VWS V14.01,2014-02-04 04:16:00,
2014-02-03 23:20:00,42.1,38.2,30.20,ENE,76,8.0,19.0,86,0.00,,---,0.00,VWS V14.01,2014-02-04 04:20:00,
2014-02-03 23:21:00,45.0,42.0,30.19,NNE,24,7.0,12.0,89,0.00,,---,0.00,VWS V14.01,2014-02-04 04:21:00,
2014-02-03 23:25:00,42.0,38.4,30.20,NNE,26,12.0,14.0,87,0.00,,---,0.00,VWS V14.01,2014-02-04 04:25:00,
2014-02-03 23:26:00,44.7,41.4,30.19,NE,39,7.0,16.0,88,0.00,,---,0.00,VWS V14.01,2014-02-04 04:26:00,
2014-02-03 23:30:00,41.8,38.2,30.20,NNE,32,8.0,16.0,87,0.00,,---,0.00,VWS V14.01,2014-02-04 04:30:00,
2014-02-03 23:31:00,44.5,41.2,30.19,NNE,32,9.0,14.0,88,0.00,,---,0.00,VWS V14.01,2014-02-04 04:31:00,
2014-02-03 23:35:00,41.8,38.2,30.21,NE,49,9.0,18.0,87,0.00,,---,0.00,VWS V14.01,2014-02-04 04:35:00,
2014-02-03 23:36:00,44.3,40.7,30.20,NNE,29,16.0,16.0,87,0.00,,---,0.00,VWS V14.01,2014-02-04 04:36:00,
2014-02-03 23:40:00,41.7,38.1,30.20,NE,34,9.0,15.0,87,0.00,,---,0.00,VWS V14.01,2014-02-04 04:40:00,
2014-02-03 23:41:00,44.0,40.4,30.20,NE,52,11.0,15.0,87,0.00,,---,0.00,VWS V14.01,2014-02-04 04:41:00,
2014-02-03 23:45:00,41.6,38.0,30.21,NE,54,11.0,15.0,87,0.00,,---,0.00,VWS V14.01,2014-02-04 04:45:00,
2014-02-03 23:46:00,43.9,40.3,30.19,NE,54,10.0,12.0,87,0.00,,---,0.00,VWS V14.01,2014-02-04 04:46:00,
2014-02-03 23:50:00,41.6,38.0,30.21,NNE,28,9.0,11.0,87,0.00,,---,0.00,VWS V14.01,2014-02-04 04:50:00,
2014-02-03 23:51:00,43.6,40.0,30.20,NE,44,9.0,13.0,87,0.00,,---,0.00,VWS V14.01,2014-02-04 04:51:00,
2014-02-03 23:55:00,41.6,38.3,30.20,NE,51,10.0,15.0,88,0.00,,---,0.00,VWS V14.01,2014-02-04 04:55:00,
2014-02-03 23:56:00,43.4,39.8,30.20,NNE,33,7.0,10.0,87,0.00,,---,0.00,VWS V14.01,2014-02-04 04:56:00,